Wetterdaten: Dienstag, 30.04.2019
Datum Zeit Temp. Aussen Temp. o. S. +5cm Feuchte Auss Luftdruck Regen Sonnenschein Regendauer Solar Windben Empfang
30.04.2019 00:00 10,8 C 10,0 C 10,0 C 84 % 1021,5 hPa 0,0 l/m 0 min 0 min 0 W/m 12,9 km/h (3 Bft) 93,62 %
30.04.2019 00:02 10,8 C 10,0 C 10,0 C 84 % 1021,5 hPa 0,0 l/m 0 min 0 min 0 W/m 9,7 km/h (2 Bft) 92,31 %
30.04.2019 00:04 10,8 C 10,0 C 9,4 C 84 % 1021,5 hPa 0,0 l/m 0 min 0 min 0 W/m 9,7 km/h (2 Bft) 95,74 %
30.04.2019 00:10 10,7 C 10,0 C 9,4 C 84 % 1021,4 hPa 0,0 l/m 0 min 0 min 0 W/m 12,9 km/h (3 Bft) 95,71 %
30.04.2019 00:12 10,7 C 10,0 C 9,4 C 84 % 1021,5 hPa 0,0 l/m 0 min 0 min 0 W/m 12,9 km/h (3 Bft) 93,62 %
30.04.2019 00:14 10,7 C 10,0 C 9,4 C 84 % 1021,5 hPa 0,0 l/m 0 min 0 min 0 W/m 9,7 km/h (2 Bft) 95,74 %
30.04.2019 00:16 10,7 C 10,0 C 9,4 C 84 % 1021,5 hPa 0,0 l/m 0 min 0 min 0 W/m 12,9 km/h (3 Bft) 95,74 %
30.04.2019 00:18 10,7 C 10,0 C 9,4 C 84 % 1021,5 hPa 0,0 l/m 0 min 0 min 0 W/m 6,4 km/h (2 Bft) 95,74 %
30.04.2019 00:20 10,7 C 10,0 C 9,4 C 84 % 1021,6 hPa 0,0 l/m 0 min 0 min 0 W/m 16,1 km/h (3 Bft) 93,62 %
30.04.2019 00:22 10,7 C 10,0 C 9,4 C 84 % 1021,6 hPa 0,0 l/m 0 min 0 min 0 W/m 9,7 km/h (2 Bft) 95,65 %
30.04.2019 00:24 10,7 C 10,0 C 9,4 C 85 % 1021,5 hPa 0,0 l/m 0 min 0 min 0 W/m 9,7 km/h (2 Bft) 97,87 %
30.04.2019 00:26 10,7 C 10,0 C 9,4 C 85 % 1021,4 hPa 0,0 l/m 0 min 0 min 0 W/m 6,4 km/h (2 Bft) 100,00 %
30.04.2019 00:28 10,7 C 10,0 C 9,4 C 85 % 1021,5 hPa 0,0 l/m 0 min 0 min 0 W/m 9,7 km/h (2 Bft) 100,00 %
30.04.2019 00:30 10,7 C 10,0 C 9,4 C 85 % 1021,5 hPa 0,0 l/m 0 min 0 min 0 W/m 9,7 km/h (2 Bft) 97,87 %
30.04.2019 00:32 10,7 C 10,0 C 9,4 C 85 % 1021,5 hPa 0,0 l/m 0 min 0 min 0 W/m 9,7 km/h (2 Bft) 97,87 %
30.04.2019 00:34 10,6 C 10,0 C 9,4 C 85 % 1021,4 hPa 0,0 l/m 0 min 0 min 0 W/m 9,7 km/h (2 Bft) 100,00 %
30.04.2019 00:36 10,7 C 10,0 C 9,4 C 85 % 1021,5 hPa 0,0 l/m 0 min 0 min 0 W/m 9,7 km/h (2 Bft) 97,87 %
30.04.2019 00:38 10,6 C 10,0 C 9,4 C 85 % 1021,5 hPa 0,0 l/m 0 min 0 min 0 W/m 12,9 km/h (3 Bft) 100,00 %
30.04.2019 00:40 10,6 C 10,0 C 9,4 C 85 % 1021,6 hPa 0,0 l/m 0 min 0 min 0 W/m 9,7 km/h (2 Bft) 100,00 %
30.04.2019 00:42 10,6 C 10,0 C 9,4 C 85 % 1021,4 hPa 0,0 l/m 0 min 0 min 0 W/m 9,7 km/h (2 Bft) 95,74 %
30.04.2019 00:44 10,6 C 10,0 C 9,4 C 85 % 1021,5 hPa 0,0 l/m 0 min 0 min 0 W/m 12,9 km/h (3 Bft) 97,83 %
30.04.2019 00:46 10,6 C 10,0 C 9,4 C 85 % 1021,6 hPa 0,0 l/m 0 min 0 min 0 W/m 6,4 km/h (2 Bft) 97,87 %
30.04.2019 00:48 10,6 C 10,0 C 9,4 C 85 % 1021,5 hPa 0,0 l/m 0 min 0 min 0 W/m 12,9 km/h (3 Bft) 100,00 %
30.04.2019 00:50 10,6 C 10,0 C 9,4 C 85 % 1021,6 hPa 0,0 l/m 0 min 0 min 0 W/m 9,7 km/h (2 Bft) 100,00 %
30.04.2019 00:52 10,6 C 10,0 C 9,4 C 86 % 1021,5 hPa 0,0 l/m 0 min 0 min 0 W/m 9,7 km/h (2 Bft) 100,00 %
30.04.2019 00:54 10,6 C 10,0 C 9,4 C 85 % 1021,5 hPa 0,0 l/m 0 min 0 min 0 W/m 9,7 km/h (2 Bft) 97,87 %
30.04.2019 00:56 10,6 C 10,0 C 9,4 C 85 % 1021,5 hPa 0,0 l/m 0 min 0 min 0 W/m 9,7 km/h (2 Bft) 97,83 %
30.04.2019 00:58 10,6 C 10,0 C 9,4 C 86 % 1021,5 hPa 0,0 l/m 0 min 0 min 0 W/m 6,4 km/h (2 Bft) 97,87 %
30.04.2019 01:00 10,6 C 10,0 C 9,4 C 86 % 1021,4 hPa 0,0 l/m 0 min 0 min 0 W/m 6,4 km/h (2 Bft) 97,87 %
30.04.2019 01:02 10,6 C 10,0 C 9,4 C 86 % 1021,4 hPa 0,0 l/m 0 min 0 min 0 W/m 9,7 km/h (2 Bft) 97,87 %
30.04.2019 01:04 10,6 C 10,0 C 9,4 C 86 % 1021,4 hPa 0,0 l/m 0 min 0 min 0 W/m 9,7 km/h (2 Bft) 97,87 %
30.04.2019 01:06 10,6 C 10,0 C 9,4 C 86 % 1021,5 hPa 0,0 l/m 0 min 0 min 0 W/m 6,4 km/h (2 Bft) 97,87 %
30.04.2019 01:08 10,6 C 10,0 C 9,4 C 86 % 1021,4 hPa 0,0 l/m 0 min 0 min 0 W/m 9,7 km/h (2 Bft) 97,83 %
30.04.2019 01:10 10,6 C 10,0 C 9,4 C 86 % 1021,4 hPa 0,0 l/m 0 min 0 min 0 W/m 6,4 km/h (2 Bft) 95,74 %
30.04.2019 01:12 10,6 C 10,0 C 9,4 C 86 % 1021,4 hPa 0,0 l/m 0 min 0 min 0 W/m 9,7 km/h (2 Bft) 95,74 %
30.04.2019 01:14 10,6 C 10,0 C 9,4 C 86 % 1021,4 hPa 0,0 l/m 0 min 0 min 0 W/m 6,4 km/h (2 Bft) 97,87 %
30.04.2019 01:16 10,6 C 10,0 C 9,4 C 86 % 1021,2 hPa 0,0 l/m 0 min 0 min 0 W/m 6,4 km/h (2 Bft) 97,87 %
30.04.2019 01:18 10,6 C 10,0 C 9,4 C 86 % 1021,3 hPa 0,0 l/m 0 min 0 min 0 W/m 9,7 km/h (2 Bft) 97,87 %
30.04.2019 01:20 10,5 C 10,0 C 9,4 C 86 % 1021,3 hPa 0,0 l/m 0 min 0 min 0 W/m 6,4 km/h (2 Bft) 97,83 %
30.04.2019 01:22 10,5 C 10,0 C 9,4 C 86 % 1021,4 hPa 0,0 l/m 0 min 0 min 0 W/m 6,4 km/h (2 Bft) 95,74 %
30.04.2019 01:24 10,5 C 10,0 C 9,4 C 86 % 1021,4 hPa 0,0 l/m 0 min 0 min 0 W/m 6,4 km/h (2 Bft) 97,87 %
30.04.2019 01:26 10,5 C 10,0 C 9,4 C 86 % 1021,3 hPa 0,0 l/m 0 min 0 min 0 W/m 9,7 km/h (2 Bft) 97,87 %
30.04.2019 01:28 10,5 C 10,0 C 9,4 C 86 % 1021,3 hPa 0,0 l/m 0 min 0 min 0 W/m 9,7 km/h (2 Bft) 97,87 %
30.04.2019 01:30 10,5 C 10,0 C 9,4 C 86 % 1021,2 hPa 0,0 l/m 0 min 0 min 0 W/m 9,7 km/h (2 Bft) 97,87 %
30.04.2019 01:32 10,5 C 10,0 C 9,4 C 86 % 1021,2 hPa 0,0 l/m 0 min 0 min 0 W/m 9,7 km/h (2 Bft) 97,83 %
30.04.2019 01:34 10,5 C 10,0 C 9,4 C 86 % 1021,2 hPa 0,0 l/m 0 min 0 min 0 W/m 6,4 km/h (2 Bft) 97,87 %
30.04.2019 01:36 10,5 C 10,0 C 9,4 C 86 % 1021,2 hPa 0,0 l/m 0 min 0 min 0 W/m 16,1 km/h (3 Bft) 97,87 %
30.04.2019 01:38 10,5 C 10,0 C 9,4 C 86 % 1021,2 hPa 0,0 l/m 0 min 0 min 0 W/m 9,7 km/h (2 Bft) 97,87 %
30.04.2019 01:40 10,5 C 9,4 C 9,4 C 87 % 1021,2 hPa 0,0 l/m 0 min 0 min 0 W/m 9,7 km/h (2 Bft) 100,00 %
30.04.2019 01:42 10,5 C 9,4 C 9,4 C 87 % 1021,2 hPa 0,0 l/m 0 min 0 min 0 W/m 22,5 km/h (4 Bft) 100,00 %
30.04.2019 01:44 10,5 C 10,0 C 9,4 C 87 % 1021,1 hPa 0,0 l/m 0 min 0 min 0 W/m 6,4 km/h (2 Bft) 100,00 %
30.04.2019 01:46 10,4 C 9,4 C 9,4 C 87 % 1021,2 hPa 0,0 l/m 0 min 0 min 0 W/m 22,5 km/h (4 Bft) 100,00 %
30.04.2019 01:48 10,4 C 10,0 C 9,4 C 87 % 1021,1 hPa 0,0 l/m 0 min 0 min 0 W/m 12,9 km/h (3 Bft) 100,00 %
30.04.2019 01:50 10,4 C 9,4 C 9,4 C 87 % 1021,1 hPa 0,0 l/m 0 min 0 min 0 W/m 9,7 km/h (2 Bft) 100,00 %
30.04.2019 01:52 10,4 C 9,4 C 9,4 C 87 % 1021,1 hPa 0,0 l/m 0 min 0 min 0 W/m 9,7 km/h (2 Bft) 97,87 %
30.04.2019 01:54 10,4 C 9,4 C 9,4 C 87 % 1021,1 hPa 0,0 l/m 0 min 0 min 0 W/m 9,7 km/h (2 Bft) 100,00 %
30.04.2019 01:56 10,4 C 9,4 C 9,4 C 87 % 1021,0 hPa 0,0 l/m 0 min 0 min 0 W/m 16,1 km/h (3 Bft) 100,00 %
30.04.2019 01:58 10,4 C 9,4 C 9,4 C 87 % 1021,0 hPa 0,0 l/m 0 min 0 min 0 W/m 16,1 km/h (3 Bft) 100,00 %
30.04.2019 02:00 10,4 C 9,4 C 9,4 C 87 % 1021,0 hPa 0,0 l/m 0 min 0 min 0 W/m 12,9 km/h (3 Bft) 97,87 %
30.04.2019 02:02 10,4 C 9,4 C 9,4 C 87 % 1021,0 hPa 0,0 l/m 0 min 0 min 0 W/m 9,7 km/h (2 Bft) 100,00 %
30.04.2019 02:04 10,4 C 9,4 C 9,4 C 87 % 1021,0 hPa 0,0 l/m 0 min 0 min 0 W/m 12,9 km/h (3 Bft) 100,00 %
30.04.2019 02:06 10,4 C 9,4 C 9,4 C 87 % 1021,0 hPa 0,0 l/m 0 min 0 min 0 W/m 6,4 km/h (2 Bft) 100,00 %
30.04.2019 02:08 10,4 C 9,4 C 9,4 C 87 % 1021,0 hPa 0,0 l/m 0 min 0 min 0 W/m 6,4 km/h (2 Bft) 100,00 %
30.04.2019 02:10 10,4 C 9,4 C 9,4 C 87 % 1021,0 hPa 0,0 l/m 0 min 0 min 0 W/m 6,4 km/h (2 Bft) 100,00 %
30.04.2019 02:12 10,4 C 9,4 C 9,4 C 88 % 1021,0 hPa 0,0 l/m 0 min 0 min 0 W/m 6,4 km/h (2 Bft) 100,00 %
30.04.2019 02:14 10,4 C 9,4 C 9,4 C 88 % 1021,0 hPa 0,0 l/m 0 min 0 min 0 W/m 6,4 km/h (2 Bft) 100,00 %
30.04.2019 02:16 10,4 C 9,4 C 9,4 C 88 % 1021,0 hPa 0,0 l/m 0 min 0 min 0 W/m 12,9 km/h (3 Bft) 100,00 %
30.04.2019 02:18 10,4 C 9,4 C 9,4 C 88 % 1021,0 hPa 0,0 l/m 0 min 0 min 0 W/m 6,4 km/h (2 Bft) 97,87 %
30.04.2019 02:20 10,3 C 9,4 C 9,4 C 88 % 1021,0 hPa 0,0 l/m 0 min 0 min 0 W/m 6,4 km/h (2 Bft) 97,83 %
30.04.2019 02:22 10,3 C 9,4 C 9,4 C 88 % 1021,1 hPa 0,0 l/m 0 min 0 min 0 W/m 6,4 km/h (2 Bft) 100,00 %
30.04.2019 02:24 10,3 C 9,4 C 9,4 C 88 % 1021,1 hPa 0,0 l/m 0 min 0 min 0 W/m 6,4 km/h (2 Bft) 100,00 %
30.04.2019 02:26 10,3 C 9,4 C 9,4 C 88 % 1021,0 hPa 0,0 l/m 0 min 0 min 0 W/m 6,4 km/h (2 Bft) 97,87 %
30.04.2019 02:28 10,3 C 9,4 C 9,4 C 88 % 1021,0 hPa 0,0 l/m 0 min 0 min 0 W/m 12,9 km/h (3 Bft) 97,87 %
30.04.2019 02:30 10,3 C 9,4 C 9,4 C 88 % 1021,1 hPa 0,0 l/m 0 min 0 min 0 W/m 9,7 km/h (2 Bft) 97,83 %
30.04.2019 02:32 10,3 C 9,4 C 9,4 C 88 % 1021,0 hPa 0,0 l/m 0 min 0 min 0 W/m 6,4 km/h (2 Bft) 97,87 %
30.04.2019 02:34 10,3 C 9,4 C 9,4 C 88 % 1021,0 hPa 0,0 l/m 0 min 0 min 0 W/m 12,9 km/h (3 Bft) 97,87 %
30.04.2019 02:36 10,3 C 9,4 C 9,4 C 88 % 1021,0 hPa 0,0 l/m 0 min 0 min 0 W/m 3,2 km/h (1 Bft) 97,87 %
30.04.2019 02:38 10,3 C 9,4 C 9,4 C 88 % 1021,0 hPa 0,0 l/m 0 min 0 min 0 W/m 12,9 km/h (3 Bft) 95,74 %
30.04.2019 02:40 10,3 C 9,4 C 9,4 C 88 % 1021,0 hPa 0,0 l/m 0 min 0 min 0 W/m 6,4 km/h (2 Bft) 97,87 %
30.04.2019 02:42 10,3 C 9,4 C 9,4 C 88 % 1021,0 hPa 0,0 l/m 0 min 0 min 0 W/m 12,9 km/h (3 Bft) 97,83 %
30.04.2019 02:44 10,3 C 9,4 C 9,4 C 88 % 1021,0 hPa 0,0 l/m 0 min 0 min 0 W/m 9,7 km/h (2 Bft) 97,87 %
30.04.2019 02:46 10,3 C 9,4 C 9,4 C 88 % 1021,0 hPa 0,0 l/m 0 min 0 min 0 W/m 12,9 km/h (3 Bft) 97,87 %
30.04.2019 02:48 10,3 C 9,4 C 9,4 C 88 % 1021,0 hPa 0,0 l/m 0 min 0 min 0 W/m 12,9 km/h (3 Bft) 97,87 %
30.04.2019 02:50 10,3 C 9,4 C 9,4 C 88 % 1021,0 hPa 0,0 l/m 0 min 0 min 0 W/m 6,4 km/h (2 Bft) 97,87 %
30.04.2019 02:52 10,2 C 9,4 C 9,4 C 88 % 1021,0 hPa 0,0 l/m 0 min 0 min 0 W/m 9,7 km/h (2 Bft) 95,74 %
30.04.2019 02:54 10,2 C 9,4 C 9,4 C 88 % 1021,0 hPa 0,0 l/m 0 min 0 min 0 W/m 16,1 km/h (3 Bft) 97,83 %
30.04.2019 02:56 10,2 C 9,4 C 9,4 C 88 % 1021,0 hPa 0,0 l/m 0 min 0 min 0 W/m 9,7 km/h (2 Bft) 93,62 %
30.04.2019 02:58 10,2 C 9,4 C 9,4 C 88 % 1020,9 hPa 0,0 l/m 0 min 0 min 0 W/m 12,9 km/h (3 Bft) 97,87 %
30.04.2019 03:00 10,2 C 9,4 C 9,4 C 89 % 1020,8 hPa 0,0 l/m 0 min 0 min 0 W/m 9,7 km/h (2 Bft) 95,74 %
30.04.2019 03:02 10,2 C 9,4 C 9,4 C 89 % 1020,9 hPa 0,0 l/m 0 min 0 min 0 W/m 9,7 km/h (2 Bft) 97,87 %
30.04.2019 03:04 10,2 C 9,4 C 9,4 C 89 % 1020,9 hPa 0,0 l/m 0 min 0 min 0 W/m 12,9 km/h (3 Bft) 97,87 %
30.04.2019 03:06 10,2 C 9,4 C 9,4 C 89 % 1020,9 hPa 0,0 l/m 0 min 0 min 0 W/m 9,7 km/h (2 Bft) 95,65 %
30.04.2019 03:08 10,2 C 9,4 C 9,4 C 89 % 1020,9 hPa 0,0 l/m 0 min 0 min 0 W/m 9,7 km/h (2 Bft) 95,74 %
30.04.2019 03:10 10,2 C 9,4 C 9,4 C 89 % 1020,9 hPa 0,0 l/m 0 min 0 min 0 W/m 9,7 km/h (2 Bft) 93,62 %
30.04.2019 03:12 10,2 C 9,4 C 9,4 C 89 % 1020,9 hPa 0,0 l/m 0 min 0 min 0 W/m 9,7 km/h (2 Bft) 95,74 %
30.04.2019 03:14 10,2 C 9,4 C 9,4 C 89 % 1020,9 hPa 0,0 l/m 0 min 0 min 0 W/m 9,7 km/h (2 Bft) 97,87 %
30.04.2019 03:16 10,2 C 9,4 C 9,4 C 89 % 1020,7 hPa 0,0 l/m 0 min 0 min 0 W/m 6,4 km/h (2 Bft) 97,83 %
30.04.2019 03:18 10,2 C 9,4 C 9,4 C 89 % 1020,8 hPa 0,0 l/m 0 min 0 min 0 W/m 6,4 km/h (2 Bft) 95,74 %
30.04.2019 03:20 10,2 C 9,4 C 9,4 C 89 % 1020,8 hPa 0,0 l/m 0 min 0 min 0 W/m 9,7 km/h (2 Bft) 95,74 %
30.04.2019 03:22 10,2 C 9,4 C 9,4 C 89 % 1020,8 hPa 0,0 l/m 0 min 0 min 0 W/m 6,4 km/h (2 Bft) 95,74 %
30.04.2019 03:24 10,2 C 9,4 C 9,4 C 89 % 1020,8 hPa 0,0 l/m 0 min 0 min 0 W/m 9,7 km/h (2 Bft) 95,74 %
30.04.2019 03:26 10,2 C 9,4 C 9,4 C 89 % 1020,7 hPa 0,0 l/m 0 min 0 min 0 W/m 6,4 km/h (2 Bft) 97,87 %
30.04.2019 03:28 10,2 C 9,4 C 9,4 C 89 % 1020,7 hPa 0,0 l/m 0 min 0 min 0 W/m 3,2 km/h (1 Bft) 95,74 %
30.04.2019 03:30 10,2 C 9,4 C 9,4 C 89 % 1020,7 hPa 0,0 l/m 0 min 0 min 0 W/m 6,4 km/h (2 Bft) 95,65 %
30.04.2019 03:32 10,2 C 9,4 C 9,4 C 89 % 1020,7 hPa 0,0 l/m 0 min 0 min 0 W/m 6,4 km/h (2 Bft) 93,62 %
30.04.2019 03:34 10,2 C 9,4 C 9,4 C 89 % 1020,6 hPa 0,0 l/m 0 min 0 min 0 W/m 16,1 km/h (3 Bft) 95,74 %
30.04.2019 03:36 10,2 C 9,4 C 9,4 C 89 % 1020,6 hPa 0,0 l/m 0 min 0 min 0 W/m 6,4 km/h (2 Bft) 97,87 %
30.04.2019 03:38 10,2 C 9,4 C 9,4 C 89 % 1020,7 hPa 0,0 l/m 0 min 0 min 0 W/m 6,4 km/h (2 Bft) 93,62 %
30.04.2019 03:40 10,2 C 9,4 C 9,4 C 90 % 1020,8 hPa 0,0 l/m 0 min 0 min 0 W/m 9,7 km/h (2 Bft) 93,48 %
30.04.2019 03:42 10,2 C 9,4 C 9,4 C 90 % 1020,6 hPa 0,0 l/m 0 min 0 min 0 W/m 9,7 km/h (2 Bft) 91,49 %
30.04.2019 03:44 10,2 C 9,4 C 9,4 C 90 % 1020,6 hPa 0,0 l/m 0 min 0 min 0 W/m 9,7 km/h (2 Bft) 95,74 %
30.04.2019 03:46 10,2 C 9,4 C 9,4 C 90 % 1020,7 hPa 0,0 l/m 0 min 0 min 0 W/m 3,2 km/h (1 Bft) 95,74 %
30.04.2019 03:48 10,2 C 9,4 C 9,4 C 90 % 1020,7 hPa 0,0 l/m 0 min 0 min 0 W/m 6,4 km/h (2 Bft) 95,74 %
30.04.2019 03:50 10,2 C 9,4 C 9,4 C 90 % 1020,6 hPa 0,0 l/m 0 min 0 min 0 W/m 12,9 km/h (3 Bft) 97,87 %
30.04.2019 03:52 10,2 C 9,4 C 9,4 C 90 % 1020,7 hPa 0,0 l/m 0 min 0 min 0 W/m 12,9 km/h (3 Bft) 95,65 %
30.04.2019 03:54 10,2 C 9,4 C 9,4 C 90 % 1020,7 hPa 0,0 l/m 0 min 0 min 0 W/m 6,4 km/h (2 Bft) 95,74 %
30.04.2019 03:56 10,2 C 9,4 C 9,4 C 90 % 1020,7 hPa 0,0 l/m 0 min 0 min 0 W/m 9,7 km/h (2 Bft) 93,62 %
30.04.2019 03:58 10,2 C 9,4 C 9,4 C 90 % 1020,7 hPa 0,0 l/m 0 min 0 min 0 W/m 12,9 km/h (3 Bft) 95,74 %
30.04.2019 04:00 10,2 C 9,4 C 9,4 C 90 % 1020,7 hPa 0,0 l/m 0 min 0 min 0 W/m 9,7 km/h (2 Bft) 93,62 %
30.04.2019 04:05 10,2 C 9,4 C 9,4 C 90 % 1020,6 hPa 0,0 l/m 0 min 0 min 0 W/m 6,4 km/h (2 Bft) 96,77 %
30.04.2019 04:06 10,2 C 9,4 C 9,4 C 90 % 1020,6 hPa 0,0 l/m 0 min 0 min 0 W/m 9,7 km/h (2 Bft) 86,96 %
30.04.2019 04:08 10,2 C 9,4 C 9,4 C 90 % 1020,6 hPa 0,0 l/m 0 min 0 min 0 W/m 9,7 km/h (2 Bft) 100,00 %
30.04.2019 04:10 10,2 C 9,4 C 9,4 C 90 % 1020,7 hPa 0,0 l/m 0 min 0 min 0 W/m 19,3 km/h (3 Bft) 94,00 %
30.04.2019 04:12 10,2 C 9,4 C 9,4 C 90 % 1020,6 hPa 0,0 l/m 0 min 0 min 0 W/m 16,1 km/h (3 Bft) 95,74 %
30.04.2019 04:14 10,2 C 9,4 C 9,4 C 90 % 1020,6 hPa 0,0 l/m 0 min 0 min 0 W/m 3,2 km/h (1 Bft) 95,65 %
30.04.2019 04:16 10,2 C 9,4 C 9,4 C 90 % 1020,6 hPa 0,0 l/m 0 min 0 min 0 W/m 6,4 km/h (2 Bft) 95,74 %
30.04.2019 04:18 10,2 C 9,4 C 9,4 C 90 % 1020,6 hPa 0,0 l/m 0 min 0 min 0 W/m 12,9 km/h (3 Bft) 97,87 %
30.04.2019 04:20 10,2 C 9,4 C 9,4 C 90 % 1020,6 hPa 0,0 l/m 0 min 0 min 0 W/m 6,4 km/h (2 Bft) 97,87 %
30.04.2019 04:22 10,2 C 9,4 C 9,4 C 90 % 1020,6 hPa 0,0 l/m 0 min 0 min 0 W/m 6,4 km/h (2 Bft) 97,87 %
30.04.2019 04:24 10,1 C 9,4 C 9,4 C 90 % 1020,6 hPa 0,0 l/m 0 min 0 min 0 W/m 6,4 km/h (2 Bft) 97,87 %
30.04.2019 04:26 10,1 C 9,4 C 9,4 C 90 % 1020,6 hPa 0,0 l/m 0 min 0 min 0 W/m 6,4 km/h (2 Bft) 97,83 %
30.04.2019 04:28 10,2 C 9,4 C 8,9 C 90 % 1020,7 hPa 0,0 l/m 0 min 0 min 0 W/m 0,0 km/h (0 Bft) 97,87 %
30.04.2019 04:30 10,1 C 9,4 C 8,9 C 91 % 1020,7 hPa 0,0 l/m 0 min 0 min 0 W/m 3,2 km/h (1 Bft) 100,00 %
30.04.2019 04:32 10,1 C 9,4 C 9,4 C 91 % 1020,7 hPa 0,0 l/m 0 min 0 min 0 W/m 6,4 km/h (2 Bft) 100,00 %
30.04.2019 04:34 10,1 C 9,4 C 8,9 C 91 % 1020,6 hPa 0,0 l/m 0 min 0 min 0 W/m 6,4 km/h (2 Bft) 100,00 %
30.04.2019 04:36 10,1 C 9,4 C 8,9 C 91 % 1020,7 hPa 0,0 l/m 0 min 0 min 0 W/m 9,7 km/h (2 Bft) 93,62 %
30.04.2019 04:38 10,1 C 9,4 C 8,9 C 91 % 1020,8 hPa 0,0 l/m 0 min 0 min 0 W/m 6,4 km/h (2 Bft) 100,00 %
30.04.2019 04:40 10,1 C 9,4 C 8,9 C 91 % 1020,8 hPa 0,0 l/m 0 min 0 min 0 W/m 9,7 km/h (2 Bft) 100,00 %
30.04.2019 04:42 10,1 C 9,4 C 8,9 C 91 % 1020,7 hPa 0,0 l/m 0 min 0 min 0 W/m 6,4 km/h (2 Bft) 100,00 %
30.04.2019 04:44 10,1 C 9,4 C 8,9 C 91 % 1020,7 hPa 0,0 l/m 0 min 0 min 0 W/m 6,4 km/h (2 Bft) 100,00 %
30.04.2019 04:46 10,1 C 9,4 C 8,9 C 91 % 1020,7 hPa 0,0 l/m 0 min 0 min 0 W/m 0,0 km/h (0 Bft) 97,14 %
30.04.2019 04:48 10,1 C 9,4 C 8,9 C 91 % 1020,6 hPa 0,0 l/m 0 min 0 min 0 W/m 12,9 km/h (3 Bft) 100,00 %
30.04.2019 04:50 10,1 C 9,4 C 8,9 C 91 % 1020,7 hPa 0,0 l/m 0 min 0 min 0 W/m 16,1 km/h (3 Bft) 97,14 %
30.04.2019 04:52 10,1 C 9,4 C 8,9 C 91 % 1020,7 hPa 0,0 l/m 0 min 0 min 0 W/m 6,4 km/h (2 Bft) 98,31 %
30.04.2019 04:54 10,1 C 9,4 C 8,9 C 91 % 1020,8 hPa 0,0 l/m 0 min 0 min 0 W/m 9,7 km/h (2 Bft) 100,00 %
30.04.2019 04:56 10,1 C 9,4 C 8,9 C 91 % 1020,7 hPa 0,0 l/m 0 min 0 min 0 W/m 6,4 km/h (2 Bft) 97,83 %
30.04.2019 04:58 10,1 C 9,4 C 8,9 C 91 % 1020,8 hPa 0,0 l/m 0 min 0 min 0 W/m 3,2 km/h (1 Bft) 100,00 %
30.04.2019 05:00 10,1 C 9,4 C 8,9 C 91 % 1020,8 hPa 0,0 l/m 0 min 0 min 0 W/m 6,4 km/h (2 Bft) 100,00 %
30.04.2019 05:02 10,1 C 9,4 C 8,9 C 91 % 1020,8 hPa 0,0 l/m 0 min 0 min 0 W/m 6,4 km/h (2 Bft) 100,00 %
30.04.2019 05:04 10,1 C 9,4 C 8,9 C 91 % 1020,7 hPa 0,0 l/m 0 min 0 min 0 W/m 3,2 km/h (1 Bft) 100,00 %
30.04.2019 05:05 10,1 C 9,4 C 8,9 C 91 % 1020,7 hPa 0,0 l/m 0 min 0 min 0 W/m 6,4 km/h (2 Bft) 100,00 %
30.04.2019 05:10 10,0 C 9,4 C 8,9 C 91 % 1020,7 hPa 0,0 l/m 0 min 0 min 0 W/m 9,7 km/h (2 Bft) 100,00 %
30.04.2019 05:12 10,0 C 9,4 C 8,9 C 91 % 1020,7 hPa 0,0 l/m 0 min 0 min 0 W/m 9,7 km/h (2 Bft) 94,12 %
30.04.2019 05:14 10,0 C 9,4 C 8,9 C 91 % 1020,6 hPa 0,0 l/m 0 min 0 min 0 W/m 16,1 km/h (3 Bft) 94,74 %
30.04.2019 05:19 10,0 C 9,4 C 8,9 C 91 % 1020,5 hPa 0,0 l/m 0 min 0 min 0 W/m 9,7 km/h (2 Bft) 100,00 %
30.04.2019 05:20 10,0 C 9,4 C 8,9 C 91 % 1020,5 hPa 0,0 l/m 0 min 0 min 0 W/m 6,4 km/h (2 Bft) 95,65 %
30.04.2019 05:22 10,0 C 9,4 C 8,9 C 91 % 1020,5 hPa 0,0 l/m 0 min 0 min 0 W/m 3,2 km/h (1 Bft) 97,87 %
30.04.2019 05:24 9,9 C 9,4 C 8,9 C 91 % 1020,5 hPa 0,0 l/m 0 min 0 min 0 W/m 6,4 km/h (2 Bft) 97,87 %
30.04.2019 05:26 9,9 C 9,4 C 8,9 C 91 % 1020,5 hPa 0,0 l/m 0 min 0 min 0 W/m 6,4 km/h (2 Bft) 97,83 %
30.04.2019 05:28 9,9 C 9,4 C 8,9 C 91 % 1020,5 hPa 0,0 l/m 0 min 0 min 0 W/m 6,4 km/h (2 Bft) 97,87 %
30.04.2019 05:30 9,9 C 9,4 C 8,9 C 91 % 1020,4 hPa 0,0 l/m 0 min 0 min 0 W/m 9,7 km/h (2 Bft) 97,87 %
30.04.2019 05:32 9,9 C 9,4 C 8,9 C 91 % 1020,5 hPa 0,0 l/m 0 min 0 min 0 W/m 6,4 km/h (2 Bft) 95,74 %
30.04.2019 05:34 9,9 C 9,4 C 8,9 C 91 % 1020,5 hPa 0,0 l/m 0 min 0 min 0 W/m 9,7 km/h (2 Bft) 97,87 %
30.04.2019 05:36 9,9 C 9,4 C 8,9 C 91 % 1020,4 hPa 0,0 l/m 0 min 0 min 0 W/m 9,7 km/h (2 Bft) 97,87 %
30.04.2019 05:38 9,9 C 9,4 C 8,9 C 91 % 1020,5 hPa 0,0 l/m 0 min 0 min 0 W/m 9,7 km/h (2 Bft) 97,83 %
30.04.2019 05:40 9,9 C 9,4 C 8,9 C 91 % 1020,5 hPa 0,0 l/m 0 min 0 min 0 W/m 16,1 km/h (3 Bft) 97,87 %
30.04.2019 05:42 9,9 C 9,4 C 8,9 C 92 % 1020,5 hPa 0,0 l/m 0 min 0 min 0 W/m 12,9 km/h (3 Bft) 95,74 %
30.04.2019 05:44 9,9 C 9,4 C 8,9 C 92 % 1020,4 hPa 0,0 l/m 0 min 0 min 0 W/m 12,9 km/h (3 Bft) 95,74 %
30.04.2019 05:46 9,8 C 9,4 C 8,9 C 92 % 1020,4 hPa 0,0 l/m 0 min 0 min 0 W/m 6,4 km/h (2 Bft) 97,87 %
30.04.2019 05:48 9,8 C 9,4 C 8,9 C 92 % 1020,5 hPa 0,0 l/m 0 min 0 min 0 W/m 9,7 km/h (2 Bft) 97,87 %
30.04.2019 05:50 9,8 C 9,4 C 8,9 C 92 % 1020,4 hPa 0,0 l/m 0 min 0 min 0 W/m 9,7 km/h (2 Bft) 95,65 %
30.04.2019 05:52 9,8 C 9,4 C 8,9 C 92 % 1020,4 hPa 0,0 l/m 0 min 0 min 0 W/m 9,7 km/h (2 Bft) 95,74 %
30.04.2019 05:54 9,8 C 9,4 C 8,9 C 92 % 1020,4 hPa 0,0 l/m 0 min 0 min 0 W/m 12,9 km/h (3 Bft) 97,87 %
30.04.2019 05:56 9,8 C 9,4 C 8,9 C 92 % 1020,4 hPa 0,0 l/m 0 min 0 min 0 W/m 6,4 km/h (2 Bft) 97,87 %
30.04.2019 05:58 9,8 C 9,4 C 8,9 C 92 % 1020,4 hPa 0,0 l/m 0 min 0 min 0 W/m 6,4 km/h (2 Bft) 97,87 %
30.04.2019 06:00 9,8 C 9,4 C 8,9 C 92 % 1020,3 hPa 0,0 l/m 0 min 0 min 0 W/m 9,7 km/h (2 Bft) 100,00 %
30.04.2019 06:02 9,8 C 8,9 C 8,9 C 92 % 1020,3 hPa 0,0 l/m 0 min 0 min 0 W/m 9,7 km/h (2 Bft) 100,00 %
30.04.2019 06:04 9,8 C 8,9 C 8,9 C 92 % 1020,4 hPa 0,0 l/m 0 min 0 min 0 W/m 9,7 km/h (2 Bft) 100,00 %
30.04.2019 06:08 9,8 C 8,9 C 8,9 C 92 % 1020,5 hPa 0,0 l/m 0 min 0 min 0 W/m 12,9 km/h (3 Bft) 100,00 %
30.04.2019 06:10 9,8 C 8,9 C 8,9 C 92 % 1020,5 hPa 0,0 l/m 0 min 0 min 0 W/m 9,7 km/h (2 Bft) 100,00 %
30.04.2019 06:12 9,8 C 8,9 C 8,9 C 92 % 1020,5 hPa 0,0 l/m 0 min 0 min 0 W/m 9,7 km/h (2 Bft) 100,00 %
30.04.2019 06:14 9,8 C 8,9 C 8,9 C 92 % 1020,5 hPa 0,0 l/m 0 min 0 min 0 W/m 12,9 km/h (3 Bft) 97,83 %
30.04.2019 06:16 9,8 C 8,9 C 8,9 C 92 % 1020,5 hPa 0,0 l/m 0 min 0 min 0 W/m 3,2 km/h (1 Bft) 97,87 %
30.04.2019 06:18 9,8 C 8,9 C 8,9 C 92 % 1020,5 hPa 0,0 l/m 0 min 0 min 0 W/m 6,4 km/h (2 Bft) 97,87 %
30.04.2019 06:20 9,8 C 8,9 C 8,9 C 92 % 1020,5 hPa 0,0 l/m 0 min 0 min 0 W/m 6,4 km/h (2 Bft) 100,00 %
30.04.2019 06:22 9,8 C 8,9 C 8,9 C 92 % 1020,5 hPa 0,0 l/m 0 min 0 min 0 W/m 12,9 km/h (3 Bft) 100,00 %
30.04.2019 06:24 9,8 C 8,9 C 8,9 C 92 % 1020,5 hPa 0,0 l/m 0 min 0 min 0 W/m 12,9 km/h (3 Bft) 100,00 %
30.04.2019 06:26 9,8 C 8,9 C 8,9 C 92 % 1020,5 hPa 0,0 l/m 0 min 0 min 0 W/m 6,4 km/h (2 Bft) 97,83 %
30.04.2019 06:28 9,8 C 8,9 C 8,9 C 92 % 1020,5 hPa 0,0 l/m 0 min 0 min 0 W/m 9,7 km/h (2 Bft) 97,87 %
30.04.2019 06:30 9,8 C 8,9 C 8,9 C 92 % 1020,5 hPa 0,0 l/m 0 min 0 min 0 W/m 9,7 km/h (2 Bft) 95,74 %
30.04.2019 06:32 9,8 C 8,9 C 8,9 C 92 % 1020,5 hPa 0,0 l/m 0 min 0 min 0 W/m 6,4 km/h (2 Bft) 97,87 %
30.04.2019 06:34 9,8 C 8,9 C 8,9 C 92 % 1020,5 hPa 0,0 l/m 0 min 0 min 4 W/m 9,7 km/h (2 Bft) 97,87 %
30.04.2019 06:36 9,8 C 8,9 C 8,9 C 92 % 1020,5 hPa 0,0 l/m 0 min 0 min 5 W/m 3,2 km/h (1 Bft) 97,83 %
30.04.2019 06:38 9,8 C 8,9 C 8,9 C 92 % 1020,5 hPa 0,0 l/m 0 min 0 min 5 W/m 3,2 km/h (1 Bft) 97,87 %
30.04.2019 06:40 9,8 C 8,9 C 8,9 C 92 % 1020,6 hPa 0,0 l/m 0 min 0 min 8 W/m 6,4 km/h (2 Bft) 97,87 %
30.04.2019 06:42 9,8 C 8,9 C 8,9 C 92 % 1020,5 hPa 0,0 l/m 0 min 0 min 10 W/m 9,7 km/h (2 Bft) 95,74 %
30.04.2019 06:44 9,8 C 8,9 C 8,9 C 92 % 1020,5 hPa 0,0 l/m 0 min 0 min 11 W/m 6,4 km/h (2 Bft) 97,87 %
30.04.2019 06:46 9,8 C 8,9 C 8,9 C 92 % 1020,5 hPa 0,0 l/m 0 min 0 min 13 W/m 9,7 km/h (2 Bft) 100,00 %
30.04.2019 06:48 9,8 C 8,9 C 8,9 C 92 % 1020,5 hPa 0,0 l/m 0 min 0 min 14 W/m 9,7 km/h (2 Bft) 97,83 %
30.04.2019 06:50 9,8 C 8,9 C 8,9 C 92 % 1020,6 hPa 0,0 l/m 0 min 0 min 14 W/m 9,7 km/h (2 Bft) 97,87 %
30.04.2019 06:52 9,8 C 8,9 C 8,9 C 92 % 1020,5 hPa 0,0 l/m 0 min 0 min 16 W/m 6,4 km/h (2 Bft) 97,87 %
30.04.2019 06:54 9,8 C 8,9 C 8,9 C 92 % 1020,5 hPa 0,0 l/m 0 min 0 min 18 W/m 9,7 km/h (2 Bft) 97,87 %
30.04.2019 06:56 9,8 C 8,9 C 8,9 C 92 % 1020,6 hPa 0,0 l/m 0 min 0 min 19 W/m 9,7 km/h (2 Bft) 95,74 %
30.04.2019 06:58 9,8 C 8,9 C 8,9 C 93 % 1020,6 hPa 0,0 l/m 0 min 0 min 20 W/m 3,2 km/h (1 Bft) 95,74 %
30.04.2019 07:00 9,8 C 8,9 C 8,9 C 93 % 1020,6 hPa 0,0 l/m 0 min 0 min 19 W/m 3,2 km/h (1 Bft) 95,65 %
30.04.2019 07:02 9,8 C 9,4 C 8,9 C 93 % 1020,6 hPa 0,0 l/m 0 min 0 min 23 W/m 9,7 km/h (2 Bft) 95,74 %
30.04.2019 07:04 9,8 C 9,4 C 8,9 C 93 % 1020,6 hPa 0,0 l/m 0 min 0 min 26 W/m 6,4 km/h (2 Bft) 95,74 %
30.04.2019 07:06 9,8 C 9,4 C 8,9 C 93 % 1020,6 hPa 0,0 l/m 0 min 0 min 27 W/m 12,9 km/h (3 Bft) 95,74 %
30.04.2019 07:08 9,8 C 9,4 C 8,9 C 93 % 1020,5 hPa 0,0 l/m 0 min 0 min 31 W/m 6,4 km/h (2 Bft) 95,74 %
30.04.2019 07:10 9,8 C 9,4 C 8,9 C 93 % 1020,5 hPa 0,0 l/m 0 min 0 min 32 W/m 6,4 km/h (2 Bft) 95,74 %
30.04.2019 07:12 9,8 C 9,4 C 8,9 C 93 % 1020,6 hPa 0,0 l/m 0 min 0 min 32 W/m 9,7 km/h (2 Bft) 95,65 %
30.04.2019 07:14 9,8 C 9,4 C 9,4 C 93 % 1020,5 hPa 0,0 l/m 0 min 0 min 33 W/m 3,2 km/h (1 Bft) 93,62 %
30.04.2019 07:16 9,8 C 9,4 C 9,4 C 93 % 1020,5 hPa 0,0 l/m 0 min 0 min 33 W/m 6,4 km/h (2 Bft) 95,74 %
30.04.2019 07:18 9,8 C 9,4 C 9,4 C 93 % 1020,6 hPa 0,0 l/m 0 min 0 min 33 W/m 9,7 km/h (2 Bft) 97,87 %
30.04.2019 07:20 9,8 C 9,4 C 9,4 C 93 % 1020,6 hPa 0,0 l/m 0 min 0 min 37 W/m 6,4 km/h (2 Bft) 97,87 %
30.04.2019 07:22 9,8 C 9,4 C 9,4 C 93 % 1020,6 hPa 0,0 l/m 0 min 0 min 40 W/m 9,7 km/h (2 Bft) 95,74 %
30.04.2019 07:24 9,8 C 9,4 C 9,4 C 93 % 1020,6 hPa 0,0 l/m 0 min 0 min 40 W/m 0,0 km/h (0 Bft) 97,83 %
30.04.2019 07:26 9,8 C 9,4 C 9,4 C 93 % 1020,6 hPa 0,0 l/m 0 min 0 min 47 W/m 0,0 km/h (0 Bft) 97,87 %
30.04.2019 07:28 9,8 C 10,0 C 9,4 C 93 % 1020,6 hPa 0,0 l/m 0 min 0 min 57 W/m 9,7 km/h (2 Bft) 93,62 %
30.04.2019 07:30 9,8 C 10,0 C 9,4 C 93 % 1020,6 hPa 0,0 l/m 0 min 0 min 67 W/m 9,7 km/h (2 Bft) 95,74 %
30.04.2019 07:32 9,8 C 10,0 C 9,4 C 93 % 1020,6 hPa 0,0 l/m 0 min 0 min 75 W/m 9,7 km/h (2 Bft) 97,87 %
30.04.2019 07:34 9,8 C 10,0 C 10,0 C 93 % 1020,7 hPa 0,0 l/m 0 min 0 min 81 W/m 6,4 km/h (2 Bft) 97,83 %
30.04.2019 07:36 9,9 C 10,6 C 10,0 C 93 % 1020,6 hPa 0,0 l/m 0 min 0 min 91 W/m 6,4 km/h (2 Bft) 97,87 %
30.04.2019 07:38 9,9 C 10,6 C 10,0 C 93 % 1020,5 hPa 0,0 l/m 0 min 0 min 98 W/m 9,7 km/h (2 Bft) 95,74 %
30.04.2019 07:40 9,9 C 10,6 C 10,0 C 93 % 1020,6 hPa 0,0 l/m 0 min 0 min 101 W/m 9,7 km/h (2 Bft) 97,87 %
30.04.2019 07:42 9,9 C 10,6 C 10,0 C 93 % 1020,6 hPa 0,0 l/m 0 min 0 min 104 W/m 12,9 km/h (3 Bft) 97,87 %
30.04.2019 07:44 10,0 C 11,1 C 10,6 C 93 % 1020,6 hPa 0,0 l/m 0 min 0 min 112 W/m 6,4 km/h (2 Bft) 93,62 %
30.04.2019 07:46 10,0 C 11,1 C 10,6 C 93 % 1020,7 hPa 0,0 l/m 0 min 0 min 113 W/m 9,7 km/h (2 Bft) 97,83 %
30.04.2019 07:48 10,1 C 11,1 C 10,6 C 93 % 1020,7 hPa 0,0 l/m 0 min 0 min 112 W/m 6,4 km/h (2 Bft) 97,87 %
30.04.2019 07:50 10,1 C 11,1 C 10,6 C 93 % 1020,8 hPa 0,0 l/m 0 min 0 min 113 W/m 6,4 km/h (2 Bft) 97,87 %
30.04.2019 07:52 10,1 C 11,1 C 10,6 C 93 % 1020,7 hPa 0,0 l/m 0 min 0 min 118 W/m 12,9 km/h (3 Bft) 91,49 %
30.04.2019 07:54 10,2 C 11,1 C 10,6 C 94 % 1020,7 hPa 0,0 l/m 2 min 0 min 130 W/m 16,1 km/h (3 Bft) 100,00 %
30.04.2019 07:56 10,2 C 11,1 C 10,6 C 93 % 1020,8 hPa 0,0 l/m 0 min 0 min 122 W/m 16,1 km/h (3 Bft) 97,87 %
30.04.2019 07:58 10,2 C 11,1 C 10,6 C 93 % 1020,8 hPa 0,0 l/m 0 min 0 min 118 W/m 6,4 km/h (2 Bft) 97,83 %
30.04.2019 08:00 10,2 C 11,1 C 10,6 C 93 % 1020,8 hPa 0,0 l/m 0 min 0 min 120 W/m 9,7 km/h (2 Bft) 95,74 %
30.04.2019 08:02 10,2 C 11,1 C 10,6 C 93 % 1020,7 hPa 0,0 l/m 0 min 0 min 120 W/m 12,9 km/h (3 Bft) 95,74 %
30.04.2019 08:04 10,2 C 11,1 C 10,6 C 93 % 1020,8 hPa 0,0 l/m 0 min 0 min 111 W/m 9,7 km/h (2 Bft) 97,87 %
30.04.2019 08:06 10,3 C 11,1 C 10,6 C 93 % 1020,8 hPa 0,0 l/m 0 min 0 min 108 W/m 12,9 km/h (3 Bft) 97,87 %
30.04.2019 08:08 10,3 C 11,1 C 10,6 C 93 % 1020,8 hPa 0,0 l/m 0 min 0 min 105 W/m 12,9 km/h (3 Bft) 95,74 %
30.04.2019 08:10 10,3 C 10,6 C 10,6 C 93 % 1020,8 hPa 0,0 l/m 0 min 0 min 103 W/m 12,9 km/h (3 Bft) 95,65 %
30.04.2019 08:12 10,3 C 10,6 C 10,6 C 93 % 1020,8 hPa 0,0 l/m 0 min 0 min 105 W/m 12,9 km/h (3 Bft) 95,74 %
30.04.2019 08:14 10,3 C 10,6 C 10,6 C 93 % 1020,8 hPa 0,0 l/m 0 min 0 min 105 W/m 12,9 km/h (3 Bft) 97,87 %
30.04.2019 08:16 10,3 C 10,6 C 10,6 C 93 % 1020,9 hPa 0,0 l/m 0 min 0 min 102 W/m 12,9 km/h (3 Bft) 97,87 %
30.04.2019 08:18 10,3 C 10,6 C 10,6 C 92 % 1020,9 hPa 0,0 l/m 0 min 0 min 100 W/m 12,9 km/h (3 Bft) 97,87 %
30.04.2019 08:20 10,3 C 10,6 C 10,6 C 92 % 1020,9 hPa 0,0 l/m 0 min 0 min 103 W/m 16,1 km/h (3 Bft) 97,87 %
30.04.2019 08:22 10,3 C 10,6 C 10,6 C 92 % 1020,9 hPa 0,0 l/m 0 min 0 min 102 W/m 12,9 km/h (3 Bft) 97,83 %
30.04.2019 08:24 10,4 C 10,6 C 10,6 C 92 % 1020,9 hPa 0,0 l/m 0 min 0 min 99 W/m 6,4 km/h (2 Bft) 97,87 %
30.04.2019 08:26 10,4 C 10,6 C 10,6 C 92 % 1020,9 hPa 0,0 l/m 0 min 0 min 105 W/m 9,7 km/h (2 Bft) 95,74 %
30.04.2019 08:28 10,4 C 11,1 C 10,6 C 92 % 1020,8 hPa 0,0 l/m 0 min 0 min 108 W/m 6,4 km/h (2 Bft) 97,87 %
30.04.2019 08:30 10,4 C 11,1 C 10,6 C 91 % 1020,9 hPa 0,0 l/m 0 min 0 min 107 W/m 12,9 km/h (3 Bft) 97,87 %
30.04.2019 08:32 10,4 C 11,1 C 10,6 C 91 % 1020,9 hPa 0,0 l/m 0 min 0 min 106 W/m 6,4 km/h (2 Bft) 97,87 %
30.04.2019 08:34 10,4 C 11,1 C 10,6 C 91 % 1020,9 hPa 0,0 l/m 0 min 0 min 111 W/m 9,7 km/h (2 Bft) 97,83 %
30.04.2019 08:36 10,4 C 11,1 C 10,6 C 91 % 1020,9 hPa 0,0 l/m 0 min 0 min 113 W/m 12,9 km/h (3 Bft) 97,87 %
30.04.2019 08:38 10,4 C 11,1 C 10,6 C 91 % 1021,0 hPa 0,0 l/m 0 min 0 min 108 W/m 9,7 km/h (2 Bft) 100,00 %
30.04.2019 08:40 10,4 C 11,1 C 10,6 C 91 % 1021,0 hPa 0,0 l/m 0 min 0 min 103 W/m 16,1 km/h (3 Bft) 100,00 %
30.04.2019 08:42 10,4 C 11,1 C 10,6 C 91 % 1021,0 hPa 0,0 l/m 0 min 0 min 98 W/m 12,9 km/h (3 Bft) 100,00 %
30.04.2019 08:44 10,4 C 11,1 C 10,6 C 90 % 1021,0 hPa 0,0 l/m 0 min 0 min 100 W/m 6,4 km/h (2 Bft) 100,00 %
30.04.2019 08:46 10,4 C 11,1 C 10,6 C 90 % 1021,0 hPa 0,0 l/m 0 min 0 min 108 W/m 6,4 km/h (2 Bft) 100,00 %
30.04.2019 08:48 10,5 C 11,1 C 10,6 C 90 % 1021,0 hPa 0,0 l/m 0 min 0 min 115 W/m 6,4 km/h (2 Bft) 100,00 %
30.04.2019 08:50 10,5 C 11,1 C 10,6 C 90 % 1021,1 hPa 0,0 l/m 0 min 0 min 114 W/m 6,4 km/h (2 Bft) 100,00 %
30.04.2019 08:52 10,5 C 11,1 C 10,6 C 90 % 1021,0 hPa 0,0 l/m 0 min 0 min 106 W/m 9,7 km/h (2 Bft) 100,00 %
30.04.2019 08:54 10,5 C 11,1 C 10,6 C 90 % 1021,1 hPa 0,0 l/m 0 min 0 min 100 W/m 6,4 km/h (2 Bft) 100,00 %
30.04.2019 08:56 10,6 C 11,1 C 10,6 C 90 % 1021,0 hPa 0,0 l/m 0 min 0 min 98 W/m 12,9 km/h (3 Bft) 100,00 %
30.04.2019 08:58 10,6 C 11,1 C 10,6 C 89 % 1021,0 hPa 0,0 l/m 0 min 0 min 95 W/m 19,3 km/h (3 Bft) 100,00 %
30.04.2019 09:00 10,6 C 11,1 C 10,6 C 89 % 1021,1 hPa 0,0 l/m 0 min 0 min 92 W/m 16,1 km/h (3 Bft) 100,00 %
30.04.2019 09:02 10,5 C 11,1 C 10,6 C 88 % 1021,1 hPa 0,0 l/m 0 min 0 min 98 W/m 12,9 km/h (3 Bft) 100,00 %
30.04.2019 09:04 10,5 C 11,1 C 10,6 C 88 % 1021,1 hPa 0,0 l/m 0 min 0 min 108 W/m 12,9 km/h (3 Bft) 100,00 %
30.04.2019 09:06 10,6 C 11,1 C 10,6 C 88 % 1021,1 hPa 0,0 l/m 0 min 0 min 108 W/m 9,7 km/h (2 Bft) 100,00 %
30.04.2019 09:08 10,6 C 11,1 C 10,6 C 88 % 1021,1 hPa 0,0 l/m 0 min 0 min 103 W/m 6,4 km/h (2 Bft) 100,00 %
30.04.2019 09:10 10,6 C 11,1 C 10,6 C 88 % 1021,1 hPa 0,0 l/m 0 min 0 min 105 W/m 9,7 km/h (2 Bft) 97,87 %
30.04.2019 09:12 10,6 C 11,7 C 10,6 C 88 % 1021,1 hPa 0,0 l/m 0 min 0 min 111 W/m 6,4 km/h (2 Bft) 100,00 %
30.04.2019 09:14 10,6 C 11,7 C 10,6 C 88 % 1021,1 hPa 0,0 l/m 0 min 0 min 114 W/m 3,2 km/h (1 Bft) 100,00 %
30.04.2019 09:16 10,7 C 11,7 C 10,6 C 87 % 1021,1 hPa 0,0 l/m 0 min 0 min 125 W/m 16,1 km/h (3 Bft) 100,00 %
30.04.2019 09:18 10,7 C 11,7 C 10,6 C 87 % 1021,1 hPa 0,0 l/m 0 min 0 min 135 W/m 12,9 km/h (3 Bft) 97,87 %
30.04.2019 09:20 10,7 C 11,7 C 11,1 C 87 % 1021,1 hPa 0,0 l/m 0 min 0 min 140 W/m 6,4 km/h (2 Bft) 100,00 %
30.04.2019 09:22 10,7 C 12,2 C 11,1 C 87 % 1021,0 hPa 0,0 l/m 0 min 0 min 172 W/m 12,9 km/h (3 Bft) 95,74 %
30.04.2019 09:24 10,8 C 12,8 C 11,7 C 87 % 1021,1 hPa 0,0 l/m 0 min 0 min 217 W/m 9,7 km/h (2 Bft) 97,87 %
30.04.2019 09:26 10,8 C 13,3 C 12,2 C 87 % 1021,1 hPa 0,0 l/m 0 min 0 min 231 W/m 6,4 km/h (2 Bft) 100,00 %
30.04.2019 09:28 10,9 C 13,9 C 12,8 C 87 % 1021,1 hPa 0,0 l/m 2 min 0 min 270 W/m 6,4 km/h (2 Bft) 100,00 %
30.04.2019 09:30 10,9 C 13,9 C 12,8 C 87 % 1021,1 hPa 0,0 l/m 2 min 0 min 287 W/m 9,7 km/h (2 Bft) 97,87 %
30.04.2019 09:32 11,1 C 13,9 C 12,8 C 87 % 1021,1 hPa 0,0 l/m 2 min 0 min 270 W/m 16,1 km/h (3 Bft) 97,83 %
30.04.2019 09:34 11,1 C 14,4 C 12,8 C 86 % 1021,1 hPa 0,0 l/m 2 min 0 min 252 W/m 6,4 km/h (2 Bft) 100,00 %
30.04.2019 09:36 11,2 C 14,4 C 13,3 C 87 % 1021,2 hPa 0,0 l/m 2 min 0 min 265 W/m 6,4 km/h (2 Bft) 97,87 %
30.04.2019 09:38 11,3 C 14,4 C 13,3 C 86 % 1021,2 hPa 0,0 l/m 2 min 0 min 332 W/m 9,7 km/h (2 Bft) 97,87 %
30.04.2019 09:40 11,3 C 14,4 C 13,3 C 85 % 1021,2 hPa 0,0 l/m 2 min 0 min 273 W/m 19,3 km/h (3 Bft) 97,87 %
30.04.2019 09:42 11,4 C 13,9 C 13,3 C 85 % 1021,2 hPa 0,0 l/m 0 min 0 min 231 W/m 9,7 km/h (2 Bft) 97,87 %
30.04.2019 09:44 11,5 C 13,9 C 13,3 C 84 % 1021,3 hPa 0,0 l/m 2 min 0 min 268 W/m 6,4 km/h (2 Bft) 100,00 %
30.04.2019 09:46 11,6 C 13,9 C 12,8 C 84 % 1021,3 hPa 0,0 l/m 0 min 0 min 257 W/m 19,3 km/h (3 Bft) 100,00 %
30.04.2019 09:48 11,6 C 13,9 C 12,8 C 84 % 1021,3 hPa 0,0 l/m 2 min 0 min 266 W/m 6,4 km/h (2 Bft) 97,87 %
30.04.2019 09:50 11,7 C 15,0 C 13,9 C 83 % 1021,3 hPa 0,0 l/m 2 min 0 min 304 W/m 9,7 km/h (2 Bft) 97,87 %
30.04.2019 09:52 11,8 C 16,1 C 15,0 C 83 % 1021,3 hPa 0,0 l/m 2 min 0 min 316 W/m 9,7 km/h (2 Bft) 97,87 %
30.04.2019 09:54 11,9 C 16,7 C 15,6 C 83 % 1021,3 hPa 0,0 l/m 2 min 0 min 324 W/m 6,4 km/h (2 Bft) 97,87 %
30.04.2019 09:56 12,1 C 16,7 C 15,6 C 83 % 1021,2 hPa 0,0 l/m 2 min 0 min 345 W/m 9,7 km/h (2 Bft) 97,83 %
30.04.2019 09:58 12,1 C 17,8 C 16,7 C 82 % 1021,4 hPa 0,0 l/m 2 min 0 min 466 W/m 16,1 km/h (3 Bft) 97,87 %
30.04.2019 10:00 12,3 C 18,3 C 17,2 C 81 % 1021,3 hPa 0,0 l/m 2 min 0 min 503 W/m 12,9 km/h (3 Bft) 95,74 %
30.04.2019 10:02 12,4 C 20,0 C 18,3 C 81 % 1021,3 hPa 0,0 l/m 2 min 0 min 591 W/m 9,7 km/h (2 Bft) 97,87 %
30.04.2019 10:04 12,6 C 20,6 C 20,0 C 79 % 1021,3 hPa 0,0 l/m 2 min 0 min 659 W/m 16,1 km/h (3 Bft) 95,74 %
30.04.2019 10:06 12,7 C 21,1 C 20,0 C 79 % 1021,3 hPa 0,0 l/m 2 min 0 min 660 W/m 12,9 km/h (3 Bft) 95,74 %
30.04.2019 10:08 12,9 C 20,6 C 20,6 C 78 % 1021,3 hPa 0,0 l/m 2 min 0 min 564 W/m 16,1 km/h (3 Bft) 95,65 %
30.04.2019 10:10 13,1 C 20,6 C 20,0 C 77 % 1021,3 hPa 0,0 l/m 2 min 0 min 643 W/m 9,7 km/h (2 Bft) 93,62 %
30.04.2019 10:12 13,2 C 18,9 C 18,3 C 76 % 1021,3 hPa 0,0 l/m 2 min 0 min 556 W/m 12,9 km/h (3 Bft) 95,74 %
30.04.2019 10:14 13,3 C 20,0 C 19,4 C 75 % 1021,3 hPa 0,0 l/m 2 min 0 min 492 W/m 9,7 km/h (2 Bft) 95,74 %
30.04.2019 10:16 13,5 C 21,7 C 20,6 C 76 % 1021,3 hPa 0,0 l/m 2 min 0 min 646 W/m 6,4 km/h (2 Bft) 93,62 %
30.04.2019 10:18 13,7 C 22,2 C 20,6 C 75 % 1021,3 hPa 0,0 l/m 2 min 0 min 689 W/m 6,4 km/h (2 Bft) 95,65 %
30.04.2019 10:20 13,9 C 22,8 C 21,7 C 75 % 1021,3 hPa 0,0 l/m 2 min 0 min 739 W/m 12,9 km/h (3 Bft) 93,62 %
30.04.2019 10:22 14,1 C 21,7 C 20,0 C 73 % 1021,3 hPa 0,0 l/m 2 min 0 min 766 W/m 6,4 km/h (2 Bft) 93,62 %
30.04.2019 10:24 14,2 C 19,4 C 18,3 C 73 % 1021,2 hPa 0,0 l/m 2 min 0 min 550 W/m 9,7 km/h (2 Bft) 91,49 %
30.04.2019 10:26 14,2 C 17,8 C 16,7 C 72 % 1021,3 hPa 0,0 l/m 0 min 0 min 261 W/m 6,4 km/h (2 Bft) 93,62 %
30.04.2019 10:28 14,2 C 17,2 C 16,1 C 71 % 1021,3 hPa 0,0 l/m 0 min 0 min 276 W/m 6,4 km/h (2 Bft) 91,49 %
30.04.2019 10:30 14,2 C 20,0 C 18,9 C 71 % 1021,3 hPa 0,0 l/m 2 min 0 min 495 W/m 9,7 km/h (2 Bft) 93,48 %
30.04.2019 10:32 14,2 C 21,7 C 21,1 C 71 % 1021,3 hPa 0,0 l/m 2 min 0 min 733 W/m 16,1 km/h (3 Bft) 89,36 %
30.04.2019 10:34 14,4 C 22,8 C 21,7 C 72 % 1021,3 hPa 0,0 l/m 2 min 0 min 706 W/m 16,1 km/h (3 Bft) 93,62 %
30.04.2019 10:36 14,5 C 22,8 C 21,7 C 71 % 1021,3 hPa 0,0 l/m 2 min 0 min 704 W/m 12,9 km/h (3 Bft) 93,62 %
30.04.2019 10:38 14,6 C 22,2 C 21,1 C 70 % 1021,3 hPa 0,0 l/m 2 min 0 min 409 W/m 9,7 km/h (2 Bft) 93,62 %
30.04.2019 10:40 14,7 C 22,2 C 22,2 C 69 % 1021,2 hPa 0,0 l/m 2 min 0 min 601 W/m 12,9 km/h (3 Bft) 93,62 %
30.04.2019 10:42 14,7 C 22,8 C 22,8 C 69 % 1021,2 hPa 0,0 l/m 2 min 0 min 688 W/m 9,7 km/h (2 Bft) 93,48 %
30.04.2019 10:44 14,8 C 23,3 C 23,3 C 68 % 1021,2 hPa 0,0 l/m 2 min 0 min 693 W/m 9,7 km/h (2 Bft) 91,49 %
30.04.2019 10:46 14,9 C 23,3 C 23,3 C 69 % 1021,2 hPa 0,0 l/m 2 min 0 min 698 W/m 12,9 km/h (3 Bft) 93,62 %
30.04.2019 10:48 15,0 C 24,4 C 23,3 C 68 % 1021,2 hPa 0,0 l/m 2 min 0 min 693 W/m 12,9 km/h (3 Bft) 93,62 %
30.04.2019 10:50 15,1 C 24,4 C 23,9 C 68 % 1021,2 hPa 0,0 l/m 2 min 0 min 699 W/m 9,7 km/h (2 Bft) 95,74 %
30.04.2019 10:52 15,2 C 23,9 C 22,8 C 67 % 1021,2 hPa 0,0 l/m 2 min 0 min 705 W/m 9,7 km/h (2 Bft) 95,74 %
30.04.2019 10:54 15,2 C 22,8 C 22,2 C 66 % 1021,2 hPa 0,0 l/m 2 min 0 min 708 W/m 12,9 km/h (3 Bft) 95,65 %
30.04.2019 10:56 15,2 C 22,2 C 21,7 C 65 % 1021,2 hPa 0,0 l/m 2 min 0 min 713 W/m 3,2 km/h (1 Bft) 95,74 %
30.04.2019 10:58 15,2 C 22,8 C 21,7 C 65 % 1021,2 hPa 0,0 l/m 2 min 0 min 706 W/m 9,7 km/h (2 Bft) 97,87 %
30.04.2019 11:00 15,3 C 23,3 C 22,8 C 66 % 1021,3 hPa 0,0 l/m 2 min 0 min 712 W/m 9,7 km/h (2 Bft) 97,87 %
30.04.2019 11:02 15,3 C 23,3 C 22,8 C 66 % 1021,3 hPa 0,0 l/m 2 min 0 min 709 W/m 6,4 km/h (2 Bft) 95,74 %
30.04.2019 11:04 15,2 C 22,8 C 21,7 C 64 % 1021,3 hPa 0,0 l/m 2 min 0 min 711 W/m 9,7 km/h (2 Bft) 97,87 %
30.04.2019 11:06 15,3 C 23,9 C 22,8 C 66 % 1021,1 hPa 0,0 l/m 2 min 0 min 703 W/m 6,4 km/h (2 Bft) 97,83 %
30.04.2019 11:08 15,4 C 23,9 C 23,3 C 67 % 1021,2 hPa 0,0 l/m 2 min 0 min 712 W/m 9,7 km/h (2 Bft) 97,87 %
30.04.2019 11:10 15,5 C 23,9 C 23,3 C 66 % 1021,3 hPa 0,0 l/m 2 min 0 min 729 W/m 6,4 km/h (2 Bft) 97,87 %
30.04.2019 11:12 15,6 C 23,9 C 23,3 C 65 % 1021,2 hPa 0,0 l/m 2 min 0 min 737 W/m 9,7 km/h (2 Bft) 97,87 %
30.04.2019 11:14 15,7 C 23,9 C 23,9 C 66 % 1021,2 hPa 0,0 l/m 2 min 0 min 751 W/m 6,4 km/h (2 Bft) 97,87 %
30.04.2019 11:16 15,8 C 25,0 C 24,4 C 66 % 1021,2 hPa 0,0 l/m 2 min 0 min 752 W/m 6,4 km/h (2 Bft) 97,87 %
30.04.2019 11:18 15,9 C 23,3 C 22,8 C 64 % 1021,2 hPa 0,0 l/m 2 min 0 min 767 W/m 9,7 km/h (2 Bft) 97,83 %
30.04.2019 11:20 15,9 C 24,4 C 23,9 C 63 % 1021,1 hPa 0,0 l/m 2 min 0 min 772 W/m 6,4 km/h (2 Bft) 97,87 %
30.04.2019 11:22 16,1 C 25,0 C 24,4 C 65 % 1021,1 hPa 0,0 l/m 2 min 0 min 781 W/m 9,7 km/h (2 Bft) 97,87 %
30.04.2019 11:24 16,1 C 23,3 C 23,3 C 65 % 1021,1 hPa 0,0 l/m 2 min 0 min 794 W/m 9,7 km/h (2 Bft) 97,87 %
30.04.2019 11:26 16,2 C 24,4 C 23,9 C 64 % 1021,0 hPa 0,0 l/m 2 min 0 min 806 W/m 6,4 km/h (2 Bft) 97,87 %
30.04.2019 11:28 16,2 C 25,6 C 24,4 C 65 % 1021,1 hPa 0,0 l/m 2 min 0 min 782 W/m 9,7 km/h (2 Bft) 97,87 %
30.04.2019 11:30 16,3 C 25,6 C 24,4 C 65 % 1021,1 hPa 0,0 l/m 2 min 0 min 788 W/m 12,9 km/h (3 Bft) 97,83 %
30.04.2019 11:32 16,4 C 25,6 C 25,0 C 65 % 1021,1 hPa 0,0 l/m 2 min 0 min 837 W/m 9,7 km/h (2 Bft) 97,87 %
30.04.2019 11:34 16,4 C 23,9 C 23,3 C 63 % 1021,1 hPa 0,0 l/m 2 min 0 min 793 W/m 9,7 km/h (2 Bft) 95,74 %
30.04.2019 11:36 16,4 C 24,4 C 23,3 C 63 % 1021,1 hPa 0,0 l/m 2 min 0 min 837 W/m 9,7 km/h (2 Bft) 97,87 %
30.04.2019 11:38 16,3 C 25,0 C 23,3 C 64 % 1021,1 hPa 0,0 l/m 2 min 0 min 859 W/m 6,4 km/h (2 Bft) 97,87 %
30.04.2019 11:40 16,3 C 23,3 C 21,7 C 65 % 1021,0 hPa 0,0 l/m 2 min 0 min 849 W/m 9,7 km/h (2 Bft) 97,83 %
30.04.2019 11:42 16,3 C 21,7 C 20,6 C 65 % 1021,0 hPa 0,0 l/m 0 min 0 min 292 W/m 16,1 km/h (3 Bft) 97,87 %
30.04.2019 11:44 16,3 C 21,7 C 21,1 C 65 % 1021,0 hPa 0,0 l/m 0 min 0 min 292 W/m 12,9 km/h (3 Bft) 97,87 %
30.04.2019 11:46 16,4 C 21,7 C 21,1 C 66 % 1021,0 hPa 0,0 l/m 0 min 0 min 292 W/m 9,7 km/h (2 Bft) 97,87 %
30.04.2019 11:48 16,4 C 19,4 C 19,4 C 66 % 1021,0 hPa 0,0 l/m 0 min 0 min 279 W/m 6,4 km/h (2 Bft) 97,87 %
30.04.2019 11:50 16,3 C 20,6 C 20,0 C 63 % 1021,0 hPa 0,0 l/m 2 min 0 min 437 W/m 9,7 km/h (2 Bft) 97,87 %
30.04.2019 11:52 16,2 C 22,2 C 21,7 C 65 % 1021,0 hPa 0,0 l/m 2 min 0 min 894 W/m 6,4 km/h (2 Bft) 97,83 %
30.04.2019 11:54 16,2 C 23,9 C 23,3 C 65 % 1021,0 hPa 0,0 l/m 2 min 0 min 891 W/m 6,4 km/h (2 Bft) 97,87 %
30.04.2019 11:56 16,2 C 23,9 C 23,3 C 65 % 1021,0 hPa 0,0 l/m 2 min 0 min 883 W/m 16,1 km/h (3 Bft) 97,87 %
30.04.2019 11:58 16,2 C 22,8 C 22,2 C 66 % 1021,0 hPa 0,0 l/m 2 min 0 min 889 W/m 16,1 km/h (3 Bft) 97,87 %
30.04.2019 12:00 16,3 C 23,3 C 22,2 C 66 % 1021,1 hPa 0,0 l/m 2 min 0 min 551 W/m 9,7 km/h (2 Bft) 95,74 %
30.04.2019 12:02 16,4 C 25,0 C 23,9 C 66 % 1021,1 hPa 0,0 l/m 2 min 0 min 738 W/m 6,4 km/h (2 Bft) 97,87 %
30.04.2019 12:04 16,5 C 25,0 C 23,9 C 66 % 1021,1 hPa 0,0 l/m 2 min 0 min 850 W/m 16,1 km/h (3 Bft) 95,65 %
30.04.2019 12:08 16,8 C 26,1 C 24,4 C 66 % 1021,0 hPa 0,0 l/m 4 min 0 min 914 W/m 16,1 km/h (3 Bft) 95,65 %
30.04.2019 12:10 16,8 C 23,3 C 22,2 C 63 % 1021,0 hPa 0,0 l/m 0 min 0 min 276 W/m 16,1 km/h (3 Bft) 95,65 %
30.04.2019 12:12 16,9 C 22,8 C 21,1 C 64 % 1021,0 hPa 0,0 l/m 0 min 0 min 276 W/m 16,1 km/h (3 Bft) 95,65 %
30.04.2019 12:14 16,8 C 21,7 C 20,6 C 63 % 1021,0 hPa 0,0 l/m 2 min 0 min 408 W/m 16,1 km/h (3 Bft) 95,65 %
30.04.2019 12:16 16,7 C 20,0 C 18,9 C 63 % 1020,9 hPa 0,0 l/m 2 min 0 min 571 W/m 16,1 km/h (3 Bft) 98,22 %
30.04.2019 12:18 16,7 C 21,7 C 20,6 C 64 % 1020,9 hPa 0,0 l/m 2 min 0 min 515 W/m 9,7 km/h (2 Bft) 97,87 %
30.04.2019 12:20 16,8 C 23,9 C 23,3 C 65 % 1020,9 hPa 0,0 l/m 2 min 0 min 972 W/m 12,9 km/h (3 Bft) 100,00 %
30.04.2019 12:22 16,9 C 25,0 C 24,4 C 64 % 1020,8 hPa 0,0 l/m 2 min 0 min 963 W/m 19,3 km/h (3 Bft) 97,87 %
30.04.2019 12:24 16,9 C 23,9 C 23,3 C 65 % 1020,8 hPa 0,0 l/m 2 min 0 min 797 W/m 9,7 km/h (2 Bft) 97,87 %
30.04.2019 12:26 17,0 C 23,3 C 22,2 C 65 % 1020,8 hPa 0,0 l/m 0 min 0 min 285 W/m 12,9 km/h (3 Bft) 97,87 %
30.04.2019 12:28 17,1 C 24,4 C 23,9 C 65 % 1020,8 hPa 0,0 l/m 2 min 0 min 628 W/m 12,9 km/h (3 Bft) 95,65 %
30.04.2019 12:30 17,2 C 25,0 C 25,0 C 65 % 1020,8 hPa 0,0 l/m 2 min 0 min 942 W/m 9,7 km/h (2 Bft) 97,87 %
30.04.2019 12:32 17,3 C 25,0 C 25,0 C 65 % 1020,7 hPa 0,0 l/m 2 min 0 min 856 W/m 16,1 km/h (3 Bft) 97,87 %
30.04.2019 12:34 17,4 C 25,0 C 25,0 C 63 % 1020,7 hPa 0,0 l/m 2 min 0 min 874 W/m 19,3 km/h (3 Bft) 97,87 %
30.04.2019 12:36 17,5 C 26,1 C 25,6 C 63 % 1020,8 hPa 0,0 l/m 2 min 0 min 988 W/m 16,1 km/h (3 Bft) 95,74 %
30.04.2019 12:38 17,6 C 26,1 C 25,6 C 64 % 1020,8 hPa 0,0 l/m 2 min 0 min 991 W/m 9,7 km/h (2 Bft) 95,74 %
30.04.2019 12:40 17,7 C 26,7 C 25,6 C 64 % 1020,7 hPa 0,0 l/m 2 min 0 min 995 W/m 9,7 km/h (2 Bft) 95,65 %
30.04.2019 12:42 17,8 C 27,2 C 26,7 C 64 % 1020,7 hPa 0,0 l/m 2 min 0 min 993 W/m 16,1 km/h (3 Bft) 93,62 %
30.04.2019 12:44 18,0 C 26,1 C 25,6 C 64 % 1020,7 hPa 0,0 l/m 2 min 0 min 946 W/m 16,1 km/h (3 Bft) 95,74 %
30.04.2019 12:46 18,1 C 22,8 C 23,3 C 63 % 1020,8 hPa 0,0 l/m 2 min 0 min 582 W/m 19,3 km/h (3 Bft) 93,62 %
30.04.2019 12:48 18,0 C 21,7 C 21,7 C 63 % 1020,7 hPa 0,0 l/m 0 min 0 min 321 W/m 16,1 km/h (3 Bft) 95,74 %
30.04.2019 12:50 18,0 C 23,3 C 23,9 C 63 % 1020,6 hPa 0,0 l/m 2 min 0 min 614 W/m 12,9 km/h (3 Bft) 95,74 %
30.04.2019 12:52 18,1 C 25,0 C 25,0 C 63 % 1020,7 hPa 0,0 l/m 2 min 0 min 991 W/m 16,1 km/h (3 Bft) 95,65 %
30.04.2019 12:54 18,1 C 26,1 C 26,1 C 63 % 1020,6 hPa 0,0 l/m 2 min 0 min 1005 W/m 16,1 km/h (3 Bft) 95,74 %
30.04.2019 12:56 18,2 C 26,7 C 26,7 C 62 % 1020,6 hPa 0,0 l/m 2 min 0 min 988 W/m 19,3 km/h (3 Bft) 93,62 %
30.04.2019 12:58 18,2 C 26,1 C 27,2 C 61 % 1020,5 hPa 0,0 l/m 2 min 0 min 963 W/m 19,3 km/h (3 Bft) 95,74 %
30.04.2019 13:00 18,3 C 26,1 C 27,8 C 63 % 1020,5 hPa 0,0 l/m 2 min 0 min 913 W/m 16,1 km/h (3 Bft) 97,87 %
30.04.2019 13:02 18,3 C 25,6 C 27,2 C 62 % 1020,6 hPa 0,0 l/m 2 min 0 min 957 W/m 19,3 km/h (3 Bft) 95,74 %
30.04.2019 13:04 18,4 C 26,7 C 27,2 C 63 % 1020,5 hPa 0,0 l/m 2 min 0 min 942 W/m 16,1 km/h (3 Bft) 93,48 %
30.04.2019 13:06 18,5 C 26,1 C 27,2 C 62 % 1020,5 hPa 0,0 l/m 2 min 0 min 990 W/m 16,1 km/h (3 Bft) 95,74 %
30.04.2019 13:08 18,6 C 25,0 C 25,6 C 61 % 1020,5 hPa 0,0 l/m 2 min 0 min 913 W/m 19,3 km/h (3 Bft) 95,74 %
30.04.2019 13:10 18,6 C 25,6 C 26,1 C 61 % 1020,5 hPa 0,0 l/m 2 min 0 min 928 W/m 19,3 km/h (3 Bft) 95,74 %
30.04.2019 13:12 18,6 C 25,0 C 25,6 C 60 % 1020,5 hPa 0,0 l/m 2 min 0 min 900 W/m 16,1 km/h (3 Bft) 95,74 %
30.04.2019 13:14 18,6 C 25,6 C 26,7 C 59 % 1020,5 hPa 0,0 l/m 2 min 0 min 900 W/m 19,3 km/h (3 Bft) 95,65 %
30.04.2019 13:16 18,6 C 25,6 C 27,2 C 60 % 1020,4 hPa 0,0 l/m 2 min 0 min 927 W/m 16,1 km/h (3 Bft) 95,74 %
30.04.2019 13:18 18,7 C 25,6 C 27,2 C 61 % 1020,5 hPa 0,0 l/m 2 min 0 min 929 W/m 16,1 km/h (3 Bft) 95,74 %
30.04.2019 13:20 18,7 C 25,0 C 26,7 C 60 % 1020,5 hPa 0,0 l/m 2 min 0 min 906 W/m 22,5 km/h (4 Bft) 93,62 %
30.04.2019 13:22 18,7 C 24,4 C 25,6 C 60 % 1020,4 hPa 0,0 l/m 2 min 0 min 925 W/m 25,7 km/h (4 Bft) 97,87 %
30.04.2019 13:24 18,7 C 24,4 C 26,1 C 62 % 1020,3 hPa 0,0 l/m 2 min 0 min 898 W/m 12,9 km/h (3 Bft) 97,87 %
30.04.2019 13:26 18,7 C 25,6 C 26,7 C 61 % 1020,4 hPa 0,0 l/m 2 min 0 min 936 W/m 19,3 km/h (3 Bft) 97,83 %
30.04.2019 13:28 18,8 C 26,7 C 27,8 C 62 % 1020,4 hPa 0,0 l/m 2 min 0 min 910 W/m 9,7 km/h (2 Bft) 97,87 %
30.04.2019 13:30 18,9 C 26,7 C 27,8 C 62 % 1020,3 hPa 0,0 l/m 2 min 0 min 907 W/m 9,7 km/h (2 Bft) 97,87 %
30.04.2019 13:32 18,9 C 26,7 C 27,8 C 62 % 1020,3 hPa 0,0 l/m 2 min 0 min 910 W/m 9,7 km/h (2 Bft) 97,87 %
30.04.2019 13:34 19,1 C 27,2 C 28,3 C 61 % 1020,3 hPa 0,0 l/m 2 min 0 min 907 W/m 9,7 km/h (2 Bft) 97,92 %
30.04.2019 13:36 19,2 C 27,2 C 28,3 C 61 % 1020,3 hPa 0,0 l/m 2 min 0 min 890 W/m 12,9 km/h (3 Bft) 95,74 %
30.04.2019 13:38 19,2 C 26,1 C 27,8 C 59 % 1020,2 hPa 0,0 l/m 2 min 0 min 925 W/m 19,3 km/h (3 Bft) 97,83 %
30.04.2019 13:40 19,2 C 26,1 C 27,8 C 59 % 1020,1 hPa 0,0 l/m 2 min 0 min 919 W/m 12,9 km/h (3 Bft) 95,74 %
30.04.2019 13:42 19,2 C 25,6 C 27,2 C 59 % 1020,2 hPa 0,0 l/m 2 min 0 min 981 W/m 22,5 km/h (4 Bft) 100,00 %
30.04.2019 13:44 19,2 C 24,4 C 26,1 C 58 % 1020,2 hPa 0,0 l/m 2 min 0 min 979 W/m 19,3 km/h (3 Bft) 100,00 %
30.04.2019 13:45 19,2 C 23,9 C 25,6 C 58 % 1020,1 hPa 0,0 l/m 1 min 0 min 941 W/m 22,5 km/h (4 Bft) 100,00 %
30.04.2019 13:48 19,1 C 22,8 C 23,9 C 60 % 1020,1 hPa 0,0 l/m 0 min 0 min 285 W/m 9,7 km/h (2 Bft) 97,21 %
30.04.2019 13:50 19,1 C 23,3 C 25,0 C 59 % 1020,1 hPa 0,0 l/m 2 min 0 min 937 W/m 25,7 km/h (4 Bft) 98,39 %
30.04.2019 13:52 19,1 C 25,0 C 26,1 C 60 % 1020,1 hPa 0,0 l/m 2 min 0 min 944 W/m 19,3 km/h (3 Bft) 100,00 %
30.04.2019 13:54 19,1 C 25,6 C 27,2 C 59 % 1020,0 hPa 0,0 l/m 2 min 0 min 961 W/m 16,1 km/h (3 Bft) 100,00 %
30.04.2019 13:56 19,1 C 26,1 C 27,8 C 59 % 1020,0 hPa 0,0 l/m 2 min 0 min 967 W/m 19,3 km/h (3 Bft) 100,00 %
30.04.2019 13:58 19,1 C 25,0 C 26,7 C 59 % 1019,9 hPa 0,0 l/m 2 min 0 min 977 W/m 9,7 km/h (2 Bft) 100,00 %
30.04.2019 14:00 19,2 C 25,6 C 27,8 C 61 % 1019,8 hPa 0,0 l/m 2 min 0 min 976 W/m 19,3 km/h (3 Bft) 97,83 %
30.04.2019 14:02 19,2 C 26,7 C 27,8 C 59 % 1019,9 hPa 0,0 l/m 2 min 0 min 952 W/m 12,9 km/h (3 Bft) 100,00 %
30.04.2019 14:04 19,3 C 26,1 C 27,2 C 59 % 1019,9 hPa 0,0 l/m 2 min 0 min 960 W/m 16,1 km/h (3 Bft) 100,00 %
30.04.2019 14:06 19,3 C 25,6 C 27,2 C 59 % 1019,8 hPa 0,0 l/m 2 min 0 min 967 W/m 16,1 km/h (3 Bft) 100,00 %
30.04.2019 14:08 19,3 C 25,6 C 27,2 C 59 % 1019,8 hPa 0,0 l/m 2 min 0 min 933 W/m 16,1 km/h (3 Bft) 97,96 %
30.04.2019 14:10 19,4 C 25,0 C 27,2 C 57 % 1019,8 hPa 0,0 l/m 2 min 0 min 1018 W/m 16,1 km/h (3 Bft) 100,00 %
30.04.2019 14:12 19,4 C 25,0 C 26,7 C 58 % 1019,9 hPa 0,0 l/m 2 min 0 min 1020 W/m 25,7 km/h (4 Bft) 100,00 %
30.04.2019 14:14 19,4 C 23,9 C 26,1 C 57 % 1019,8 hPa 0,0 l/m 2 min 0 min 1016 W/m 25,7 km/h (4 Bft) 100,00 %
30.04.2019 14:16 19,3 C 22,2 C 23,3 C 57 % 1019,8 hPa 0,0 l/m 2 min 0 min 785 W/m 25,7 km/h (4 Bft) 97,73 %
30.04.2019 14:18 19,2 C 22,2 C 23,3 C 57 % 1019,8 hPa 0,0 l/m 0 min 0 min 306 W/m 16,1 km/h (3 Bft) 100,00 %
30.04.2019 14:20 19,1 C 23,3 C 25,0 C 58 % 1019,8 hPa 0,0 l/m 2 min 0 min 913 W/m 16,1 km/h (3 Bft) 100,00 %
30.04.2019 14:22 19,2 C 23,9 C 25,6 C 57 % 1019,8 hPa 0,0 l/m 2 min 0 min 896 W/m 19,3 km/h (3 Bft) 100,00 %
30.04.2019 14:24 19,2 C 23,9 C 26,1 C 59 % 1019,7 hPa 0,0 l/m 2 min 0 min 852 W/m 19,3 km/h (3 Bft) 100,00 %
30.04.2019 14:26 19,2 C 23,3 C 25,6 C 58 % 1019,8 hPa 0,0 l/m 2 min 0 min 860 W/m 16,1 km/h (3 Bft) 97,87 %
30.04.2019 14:28 19,2 C 21,1 C 23,3 C 58 % 1019,8 hPa 0,0 l/m 2 min 0 min 673 W/m 12,9 km/h (3 Bft) 98,00 %
30.04.2019 14:30 19,1 C 21,7 C 22,8 C 57 % 1019,7 hPa 0,0 l/m 0 min 0 min 326 W/m 29,0 km/h (5 Bft) 100,00 %
30.04.2019 14:32 18,9 C 22,8 C 23,3 C 57 % 1019,7 hPa 0,0 l/m 2 min 0 min 918 W/m 16,1 km/h (3 Bft) 100,00 %
30.04.2019 14:34 18,9 C 24,4 C 23,9 C 60 % 1019,7 hPa 0,0 l/m 2 min 0 min 936 W/m 9,7 km/h (2 Bft) 100,00 %
30.04.2019 14:36 19,1 C 25,0 C 24,4 C 60 % 1019,7 hPa 0,0 l/m 2 min 0 min 920 W/m 12,9 km/h (3 Bft) 100,00 %
30.04.2019 14:38 19,1 C 25,0 C 24,4 C 59 % 1019,6 hPa 0,0 l/m 2 min 0 min 906 W/m 16,1 km/h (3 Bft) 97,62 %
30.04.2019 14:40 19,2 C 25,0 C 23,9 C 60 % 1019,7 hPa 0,0 l/m 2 min 0 min 920 W/m 19,3 km/h (3 Bft) 100,00 %
30.04.2019 14:42 19,3 C 24,4 C 22,2 C 57 % 1019,6 hPa 0,0 l/m 2 min 0 min 919 W/m 12,9 km/h (3 Bft) 100,00 %
30.04.2019 14:44 19,3 C 24,4 C 21,1 C 57 % 1019,6 hPa 0,0 l/m 2 min 0 min 798 W/m 12,9 km/h (3 Bft) 100,00 %
30.04.2019 14:46 19,4 C 25,0 C 21,1 C 60 % 1019,6 hPa 0,0 l/m 2 min 0 min 916 W/m 12,9 km/h (3 Bft) 100,00 %
30.04.2019 14:48 19,5 C 25,0 C 21,1 C 58 % 1019,6 hPa 0,0 l/m 2 min 0 min 879 W/m 19,3 km/h (3 Bft) 100,00 %
30.04.2019 14:50 19,6 C 23,3 C 20,0 C 57 % 1019,6 hPa 0,0 l/m 2 min 0 min 744 W/m 9,7 km/h (2 Bft) 100,00 %
30.04.2019 14:52 19,6 C 23,9 C 19,4 C 57 % 1019,6 hPa 0,0 l/m 2 min 0 min 453 W/m 16,1 km/h (3 Bft) 100,00 %
30.04.2019 14:54 19,6 C 23,9 C 19,4 C 57 % 1019,5 hPa 0,0 l/m 2 min 0 min 866 W/m 12,9 km/h (3 Bft) 100,00 %
30.04.2019 14:56 19,5 C 23,9 C 19,4 C 56 % 1019,5 hPa 0,0 l/m 2 min 0 min 858 W/m 19,3 km/h (3 Bft) 100,00 %
30.04.2019 14:58 19,4 C 23,9 C 18,9 C 57 % 1019,5 hPa 0,0 l/m 2 min 0 min 876 W/m 12,9 km/h (3 Bft) 97,87 %
30.04.2019 15:00 19,4 C 23,3 C 19,4 C 57 % 1019,5 hPa 0,0 l/m 2 min 0 min 916 W/m 22,5 km/h (4 Bft) 97,87 %
30.04.2019 15:02 19,4 C 23,3 C 20,0 C 58 % 1019,5 hPa 0,0 l/m 2 min 0 min 926 W/m 19,3 km/h (3 Bft) 100,00 %
30.04.2019 15:04 19,4 C 23,3 C 20,0 C 58 % 1019,4 hPa 0,0 l/m 2 min 0 min 450 W/m 16,1 km/h (3 Bft) 97,87 %
30.04.2019 15:06 19,4 C 23,3 C 20,0 C 57 % 1019,4 hPa 0,0 l/m 2 min 0 min 876 W/m 19,3 km/h (3 Bft) 97,83 %
30.04.2019 15:08 19,4 C 23,9 C 19,4 C 56 % 1019,3 hPa 0,0 l/m 2 min 0 min 821 W/m 9,7 km/h (2 Bft) 97,87 %
30.04.2019 15:10 19,5 C 23,9 C 19,4 C 58 % 1019,4 hPa 0,0 l/m 2 min 0 min 834 W/m 19,3 km/h (3 Bft) 97,56 %
30.04.2019 15:12 19,5 C 23,3 C 19,4 C 58 % 1019,2 hPa 0,0 l/m 2 min 0 min 836 W/m 19,3 km/h (3 Bft) 97,87 %
30.04.2019 15:14 19,5 C 23,3 C 19,4 C 58 % 1019,3 hPa 0,0 l/m 2 min 0 min 809 W/m 19,3 km/h (3 Bft) 97,96 %
30.04.2019 15:16 19,6 C 22,8 C 19,4 C 57 % 1019,3 hPa 0,0 l/m 2 min 0 min 821 W/m 12,9 km/h (3 Bft) 97,87 %
30.04.2019 15:18 19,6 C 22,2 C 19,4 C 56 % 1019,3 hPa 0,0 l/m 0 min 0 min 303 W/m 12,9 km/h (3 Bft) 97,87 %
30.04.2019 15:20 19,6 C 22,8 C 19,4 C 57 % 1019,2 hPa 0,0 l/m 2 min 0 min 801 W/m 9,7 km/h (2 Bft) 95,65 %
30.04.2019 15:22 19,6 C 22,8 C 19,4 C 57 % 1019,3 hPa 0,0 l/m 2 min 0 min 836 W/m 12,9 km/h (3 Bft) 95,74 %
30.04.2019 15:24 19,6 C 23,3 C 19,4 C 56 % 1019,2 hPa 0,0 l/m 2 min 0 min 850 W/m 12,9 km/h (3 Bft) 97,96 %
30.04.2019 15:26 19,7 C 23,9 C 19,4 C 57 % 1019,2 hPa 0,0 l/m 2 min 0 min 845 W/m 9,7 km/h (2 Bft) 97,96 %
30.04.2019 15:28 19,7 C 23,3 C 19,4 C 58 % 1019,0 hPa 0,0 l/m 2 min 0 min 844 W/m 9,7 km/h (2 Bft) 97,87 %
30.04.2019 15:30 19,8 C 23,3 C 19,4 C 56 % 1019,1 hPa 0,0 l/m 2 min 0 min 817 W/m 16,1 km/h (3 Bft) 97,62 %
30.04.2019 15:32 19,8 C 23,3 C 19,4 C 58 % 1019,2 hPa 0,0 l/m 2 min 0 min 815 W/m 6,4 km/h (2 Bft) 97,96 %
30.04.2019 15:34 19,8 C 21,1 C 18,9 C 55 % 1019,0 hPa 0,0 l/m 2 min 0 min 376 W/m 6,4 km/h (2 Bft) 97,87 %
30.04.2019 15:36 19,8 C 21,1 C 18,9 C 55 % 1019,0 hPa 0,0 l/m 2 min 0 min 405 W/m 16,1 km/h (3 Bft) 95,74 %
30.04.2019 15:38 19,8 C 21,7 C 18,9 C 56 % 1019,0 hPa 0,0 l/m 2 min 0 min 732 W/m 9,7 km/h (2 Bft) 95,74 %
30.04.2019 15:40 19,8 C 22,2 C 19,4 C 57 % 1019,1 hPa 0,0 l/m 2 min 0 min 726 W/m 12,9 km/h (3 Bft) 97,87 %
30.04.2019 15:42 19,8 C 22,8 C 19,4 C 59 % 1019,0 hPa 0,0 l/m 2 min 0 min 738 W/m 9,7 km/h (2 Bft) 97,87 %
30.04.2019 15:44 19,9 C 21,7 C 18,9 C 55 % 1019,1 hPa 0,0 l/m 2 min 0 min 528 W/m 16,1 km/h (3 Bft) 100,00 %
30.04.2019 15:46 19,9 C 21,7 C 19,4 C 56 % 1019,0 hPa 0,0 l/m 2 min 0 min 608 W/m 9,7 km/h (2 Bft) 100,00 %
30.04.2019 15:48 19,9 C 22,2 C 19,4 C 57 % 1019,0 hPa 0,0 l/m 2 min 0 min 752 W/m 12,9 km/h (3 Bft) 97,87 %
30.04.2019 15:50 20,0 C 22,8 C 19,4 C 58 % 1019,0 hPa 0,0 l/m 2 min 0 min 764 W/m 12,9 km/h (3 Bft) 97,87 %
30.04.2019 15:52 20,1 C 22,2 C 19,4 C 57 % 1019,0 hPa 0,0 l/m 2 min 0 min 764 W/m 6,4 km/h (2 Bft) 97,67 %
30.04.2019 15:54 20,1 C 21,7 C 18,9 C 57 % 1019,0 hPa 0,0 l/m 2 min 0 min 770 W/m 16,1 km/h (3 Bft) 95,83 %
30.04.2019 15:56 19,9 C 20,0 C 18,3 C 55 % 1018,8 hPa 0,0 l/m 2 min 0 min 798 W/m 12,9 km/h (3 Bft) 97,96 %
30.04.2019 15:58 19,8 C 20,6 C 18,3 C 57 % 1018,9 hPa 0,0 l/m 2 min 0 min 781 W/m 12,9 km/h (3 Bft) 97,56 %
30.04.2019 16:00 19,8 C 20,6 C 18,9 C 57 % 1018,8 hPa 0,0 l/m 2 min 0 min 672 W/m 19,3 km/h (3 Bft) 97,87 %
30.04.2019 16:02 19,7 C 20,0 C 18,9 C 55 % 1018,9 hPa 0,0 l/m 0 min 0 min 313 W/m 12,9 km/h (3 Bft) 96,00 %
30.04.2019 16:04 19,7 C 21,1 C 18,9 C 57 % 1018,8 hPa 0,0 l/m 2 min 0 min 528 W/m 12,9 km/h (3 Bft) 95,74 %
30.04.2019 16:06 19,7 C 21,1 C 18,9 C 57 % 1018,9 hPa 0,0 l/m 2 min 0 min 736 W/m 16,1 km/h (3 Bft) 97,96 %
30.04.2019 16:08 19,7 C 21,1 C 18,9 C 57 % 1018,8 hPa 0,0 l/m 2 min 0 min 747 W/m 9,7 km/h (2 Bft) 97,87 %
30.04.2019 16:10 19,7 C 21,1 C 18,9 C 55 % 1018,8 hPa 0,0 l/m 2 min 0 min 682 W/m 6,4 km/h (2 Bft) 97,87 %
30.04.2019 16:12 19,7 C 21,1 C 18,9 C 56 % 1018,8 hPa 0,0 l/m 2 min 0 min 705 W/m 16,1 km/h (3 Bft) 95,24 %
30.04.2019 16:14 19,8 C 21,1 C 19,4 C 56 % 1018,7 hPa 0,0 l/m 2 min 0 min 745 W/m 29,0 km/h (5 Bft) 95,92 %
30.04.2019 16:16 19,8 C 21,1 C 19,4 C 57 % 1018,8 hPa 0,0 l/m 2 min 0 min 776 W/m 16,1 km/h (3 Bft) 95,92 %
30.04.2019 16:18 19,8 C 21,1 C 19,4 C 56 % 1018,7 hPa 0,0 l/m 2 min 0 min 782 W/m 12,9 km/h (3 Bft) 95,74 %
30.04.2019 16:20 19,8 C 21,1 C 19,4 C 55 % 1018,7 hPa 0,0 l/m 2 min 0 min 754 W/m 12,9 km/h (3 Bft) 93,62 %
30.04.2019 16:22 19,8 C 21,7 C 19,4 C 56 % 1018,7 hPa 0,0 l/m 2 min 0 min 793 W/m 6,4 km/h (2 Bft) 95,12 %
30.04.2019 16:24 19,9 C 21,1 C 19,4 C 55 % 1018,7 hPa 0,0 l/m 2 min 0 min 796 W/m 22,5 km/h (4 Bft) 93,88 %
30.04.2019 16:26 19,9 C 21,1 C 19,4 C 55 % 1018,6 hPa 0,0 l/m 2 min 0 min 750 W/m 19,3 km/h (3 Bft) 95,92 %
30.04.2019 16:28 19,9 C 20,6 C 19,4 C 56 % 1018,6 hPa 0,0 l/m 2 min 0 min 704 W/m 16,1 km/h (3 Bft) 95,83 %
30.04.2019 16:30 19,9 C 20,0 C 18,9 C 55 % 1018,6 hPa 0,0 l/m 2 min 0 min 679 W/m 19,3 km/h (3 Bft) 95,74 %
30.04.2019 16:32 19,8 C 19,4 C 18,3 C 55 % 1018,7 hPa 0,0 l/m 2 min 0 min 493 W/m 16,1 km/h (3 Bft) 95,35 %
30.04.2019 16:34 19,7 C 19,4 C 18,3 C 57 % 1018,6 hPa 0,0 l/m 0 min 0 min 261 W/m 12,9 km/h (3 Bft) 95,92 %
30.04.2019 16:36 19,7 C 19,4 C 18,3 C 56 % 1018,6 hPa 0,0 l/m 2 min 0 min 645 W/m 19,3 km/h (3 Bft) 91,84 %
30.04.2019 16:38 19,6 C 20,0 C 18,9 C 58 % 1018,6 hPa 0,0 l/m 2 min 0 min 657 W/m 25,7 km/h (4 Bft) 95,12 %
30.04.2019 16:40 19,6 C 20,0 C 18,9 C 57 % 1018,7 hPa 0,0 l/m 2 min 0 min 663 W/m 12,9 km/h (3 Bft) 93,88 %
30.04.2019 16:42 19,6 C 20,0 C 18,9 C 58 % 1018,6 hPa 0,0 l/m 2 min 0 min 680 W/m 12,9 km/h (3 Bft) 97,96 %
30.04.2019 16:44 19,6 C 20,0 C 18,9 C 57 % 1018,7 hPa 0,0 l/m 2 min 0 min 654 W/m 16,1 km/h (3 Bft) 97,92 %
30.04.2019 16:46 19,6 C 19,4 C 18,9 C 57 % 1018,6 hPa 0,0 l/m 2 min 0 min 660 W/m 22,5 km/h (4 Bft) 97,87 %
30.04.2019 16:48 19,6 C 20,0 C 18,9 C 57 % 1018,6 hPa 0,0 l/m 2 min 0 min 684 W/m 22,5 km/h (4 Bft) 97,87 %
30.04.2019 16:50 19,6 C 20,0 C 18,9 C 57 % 1018,6 hPa 0,0 l/m 2 min 0 min 658 W/m 16,1 km/h (3 Bft) 97,62 %
30.04.2019 16:52 19,7 C 20,6 C 19,4 C 59 % 1018,6 hPa 0,0 l/m 2 min 0 min 628 W/m 12,9 km/h (3 Bft) 96,00 %
30.04.2019 16:54 19,7 C 20,0 C 19,4 C 59 % 1018,6 hPa 0,0 l/m 2 min 0 min 627 W/m 16,1 km/h (3 Bft) 97,92 %
30.04.2019 16:56 19,8 C 20,0 C 18,9 C 57 % 1018,6 hPa 0,0 l/m 2 min 0 min 639 W/m 22,5 km/h (4 Bft) 97,87 %
30.04.2019 16:58 19,8 C 20,0 C 18,9 C 59 % 1018,6 hPa 0,0 l/m 2 min 0 min 564 W/m 9,7 km/h (2 Bft) 97,67 %
30.04.2019 17:00 19,9 C 20,0 C 18,9 C 58 % 1018,6 hPa 0,0 l/m 2 min 0 min 564 W/m 12,9 km/h (3 Bft) 97,87 %
30.04.2019 17:02 19,9 C 20,0 C 18,9 C 60 % 1018,6 hPa 0,0 l/m 2 min 0 min 564 W/m 12,9 km/h (3 Bft) 98,00 %
30.04.2019 17:04 19,9 C 19,4 C 18,9 C 57 % 1018,6 hPa 0,0 l/m 2 min 0 min 484 W/m 19,3 km/h (3 Bft) 97,83 %
30.04.2019 17:06 19,9 C 18,9 C 18,3 C 57 % 1018,7 hPa 0,0 l/m 0 min 0 min 264 W/m 19,3 km/h (3 Bft) 93,62 %
30.04.2019 17:08 19,8 C 18,9 C 18,3 C 57 % 1018,6 hPa 0,0 l/m 2 min 0 min 486 W/m 19,3 km/h (3 Bft) 95,74 %
30.04.2019 17:10 19,7 C 18,9 C 18,3 C 57 % 1018,6 hPa 0,0 l/m 2 min 0 min 510 W/m 25,7 km/h (4 Bft) 97,87 %
30.04.2019 17:12 19,6 C 18,3 C 17,8 C 57 % 1018,6 hPa 0,0 l/m 2 min 0 min 530 W/m 25,7 km/h (4 Bft) 97,92 %
30.04.2019 17:14 19,4 C 18,3 C 17,8 C 57 % 1018,7 hPa 0,0 l/m 2 min 0 min 519 W/m 19,3 km/h (3 Bft) 97,87 %
30.04.2019 17:16 19,3 C 18,3 C 17,8 C 57 % 1018,7 hPa 0,0 l/m 2 min 0 min 518 W/m 16,1 km/h (3 Bft) 97,83 %
30.04.2019 17:18 19,3 C 18,3 C 17,8 C 57 % 1018,5 hPa 0,0 l/m 2 min 0 min 520 W/m 22,5 km/h (4 Bft) 60,98 %
30.04.2019 17:20 19,2 C 18,3 C 17,8 C 58 % 1018,6 hPa 0,0 l/m 2 min 0 min 518 W/m 19,3 km/h (3 Bft) 86,11 %
30.04.2019 17:22 19,1 C 18,3 C 17,8 C 58 % 1018,5 hPa 0,0 l/m 2 min 0 min 504 W/m 22,5 km/h (4 Bft) 98,00 %
30.04.2019 17:24 19,1 C 18,3 C 17,8 C 59 % 1018,5 hPa 0,0 l/m 2 min 0 min 491 W/m 19,3 km/h (3 Bft) 95,83 %
30.04.2019 17:26 19,0 C 18,3 C 17,8 C 59 % 1018,5 hPa 0,0 l/m 2 min 0 min 481 W/m 19,3 km/h (3 Bft) 97,87 %
30.04.2019 17:28 19,0 C 18,3 C 17,8 C 59 % 1018,6 hPa 0,0 l/m 2 min 0 min 482 W/m 25,7 km/h (4 Bft) 100,00 %
30.04.2019 17:30 18,9 C 18,3 C 17,8 C 59 % 1018,6 hPa 0,0 l/m 2 min 0 min 468 W/m 19,3 km/h (3 Bft) 97,62 %
30.04.2019 17:32 18,8 C 17,8 C 17,8 C 59 % 1018,5 hPa 0,0 l/m 2 min 0 min 457 W/m 22,5 km/h (4 Bft) 96,00 %
30.04.2019 17:34 18,8 C 17,8 C 17,8 C 59 % 1018,6 hPa 0,0 l/m 2 min 0 min 457 W/m 16,1 km/h (3 Bft) 97,87 %
30.04.2019 17:36 18,7 C 17,8 C 17,2 C 60 % 1018,5 hPa 0,0 l/m 2 min 0 min 459 W/m 19,3 km/h (3 Bft) 97,96 %
30.04.2019 17:38 18,7 C 17,8 C 17,2 C 59 % 1018,4 hPa 0,0 l/m 2 min 0 min 457 W/m 19,3 km/h (3 Bft) 97,30 %
30.04.2019 17:40 18,6 C 17,8 C 17,2 C 59 % 1018,5 hPa 0,0 l/m 2 min 0 min 453 W/m 25,7 km/h (4 Bft) 97,87 %
30.04.2019 17:42 18,6 C 17,8 C 17,2 C 60 % 1018,4 hPa 0,0 l/m 2 min 0 min 443 W/m 16,1 km/h (3 Bft) 95,83 %
30.04.2019 17:44 18,5 C 17,8 C 17,2 C 60 % 1018,5 hPa 0,0 l/m 2 min 0 min 440 W/m 22,5 km/h (4 Bft) 97,87 %
30.04.2019 17:46 18,5 C 17,8 C 17,2 C 61 % 1018,4 hPa 0,0 l/m 2 min 0 min 409 W/m 19,3 km/h (3 Bft) 97,87 %
30.04.2019 17:48 18,4 C 17,8 C 17,2 C 62 % 1018,4 hPa 0,0 l/m 2 min 0 min 404 W/m 16,1 km/h (3 Bft) 97,87 %
30.04.2019 17:50 18,4 C 18,3 C 17,2 C 62 % 1018,4 hPa 0,0 l/m 2 min 0 min 417 W/m 9,7 km/h (2 Bft) 97,87 %
30.04.2019 17:52 18,4 C 17,8 C 17,2 C 61 % 1018,3 hPa 0,0 l/m 2 min 0 min 410 W/m 22,5 km/h (4 Bft) 97,87 %
30.04.2019 17:54 18,4 C 17,8 C 16,7 C 60 % 1018,4 hPa 0,0 l/m 2 min 0 min 394 W/m 25,7 km/h (4 Bft) 93,48 %
30.04.2019 17:56 18,4 C 17,8 C 16,7 C 61 % 1018,4 hPa 0,0 l/m 2 min 0 min 389 W/m 12,9 km/h (3 Bft) 97,87 %
30.04.2019 17:58 18,4 C 17,8 C 17,2 C 63 % 1018,3 hPa 0,0 l/m 2 min 0 min 388 W/m 12,9 km/h (3 Bft) 97,87 %
30.04.2019 18:00 18,4 C 17,8 C 16,7 C 61 % 1018,4 hPa 0,0 l/m 2 min 0 min 384 W/m 16,1 km/h (3 Bft) 96,00 %
30.04.2019 18:02 18,3 C 17,8 C 16,7 C 61 % 1018,4 hPa 0,0 l/m 2 min 0 min 383 W/m 16,1 km/h (3 Bft) 97,87 %
30.04.2019 18:04 18,3 C 17,8 C 16,7 C 61 % 1018,3 hPa 0,0 l/m 2 min 0 min 377 W/m 19,3 km/h (3 Bft) 97,92 %
30.04.2019 18:08 18,3 C 17,2 C 16,7 C 60 % 1018,3 hPa 0,0 l/m 4 min 0 min 369 W/m 25,7 km/h (4 Bft) 97,87 %
30.04.2019 18:10 18,2 C 17,2 C 16,7 C 61 % 1018,3 hPa 0,0 l/m 2 min 0 min 368 W/m 12,9 km/h (3 Bft) 97,87 %
30.04.2019 18:12 18,2 C 17,2 C 16,7 C 62 % 1018,3 hPa 0,0 l/m 2 min 0 min 356 W/m 12,9 km/h (3 Bft) 97,62 %
30.04.2019 18:14 18,2 C 17,2 C 16,7 C 62 % 1018,2 hPa 0,0 l/m 2 min 0 min 352 W/m 12,9 km/h (3 Bft) 95,74 %
30.04.2019 18:16 18,2 C 17,2 C 16,7 C 62 % 1018,3 hPa 0,0 l/m 2 min 0 min 346 W/m 19,3 km/h (3 Bft) 100,00 %
30.04.2019 18:18 18,1 C 16,7 C 16,1 C 61 % 1018,3 hPa 0,0 l/m 2 min 0 min 336 W/m 25,7 km/h (4 Bft) 97,87 %
30.04.2019 18:20 18,1 C 16,7 C 16,1 C 62 % 1018,2 hPa 0,0 l/m 2 min 0 min 320 W/m 12,9 km/h (3 Bft) 100,00 %
30.04.2019 18:22 18,0 C 16,7 C 16,1 C 63 % 1018,4 hPa 0,0 l/m 2 min 0 min 311 W/m 22,5 km/h (4 Bft) 100,00 %
30.04.2019 18:24 17,9 C 16,7 C 16,1 C 63 % 1018,3 hPa 0,0 l/m 2 min 0 min 309 W/m 19,3 km/h (3 Bft) 100,00 %
30.04.2019 18:26 17,8 C 16,7 C 16,1 C 63 % 1018,2 hPa 0,0 l/m 2 min 0 min 304 W/m 16,1 km/h (3 Bft) 100,00 %
30.04.2019 18:28 17,8 C 16,7 C 16,1 C 64 % 1018,3 hPa 0,0 l/m 2 min 0 min 300 W/m 12,9 km/h (3 Bft) 100,00 %
30.04.2019 18:30 17,7 C 16,7 C 15,6 C 64 % 1018,3 hPa 0,0 l/m 2 min 0 min 296 W/m 19,3 km/h (3 Bft) 100,00 %
30.04.2019 18:32 17,6 C 16,7 C 15,6 C 63 % 1018,2 hPa 0,0 l/m 2 min 0 min 286 W/m 19,3 km/h (3 Bft) 100,00 %
30.04.2019 18:34 17,6 C 16,1 C 15,6 C 64 % 1018,2 hPa 0,0 l/m 2 min 0 min 287 W/m 19,3 km/h (3 Bft) 100,00 %
30.04.2019 18:36 17,4 C 16,1 C 15,0 C 65 % 1018,2 hPa 0,0 l/m 2 min 0 min 281 W/m 22,5 km/h (4 Bft) 100,00 %
30.04.2019 18:38 17,3 C 16,1 C 15,0 C 64 % 1018,2 hPa 0,0 l/m 2 min 0 min 272 W/m 19,3 km/h (3 Bft) 100,00 %
30.04.2019 18:40 17,3 C 16,1 C 15,0 C 65 % 1018,2 hPa 0,0 l/m 2 min 0 min 271 W/m 25,7 km/h (4 Bft) 100,00 %
30.04.2019 18:42 17,2 C 16,1 C 15,0 C 65 % 1018,1 hPa 0,0 l/m 2 min 0 min 264 W/m 19,3 km/h (3 Bft) 97,87 %
30.04.2019 18:44 17,1 C 16,1 C 15,0 C 65 % 1018,2 hPa 0,0 l/m 2 min 0 min 257 W/m 22,5 km/h (4 Bft) 97,87 %
30.04.2019 18:46 17,1 C 15,6 C 15,0 C 66 % 1018,2 hPa 0,0 l/m 2 min 0 min 248 W/m 22,5 km/h (4 Bft) 97,87 %
30.04.2019 18:48 16,9 C 15,6 C 15,0 C 66 % 1018,1 hPa 0,0 l/m 2 min 0 min 246 W/m 12,9 km/h (3 Bft) 97,87 %
30.04.2019 18:50 16,9 C 15,6 C 14,4 C 66 % 1018,2 hPa 0,0 l/m 2 min 0 min 237 W/m 22,5 km/h (4 Bft) 97,83 %
30.04.2019 18:52 16,7 C 15,6 C 14,4 C 66 % 1018,1 hPa 0,0 l/m 2 min 0 min 227 W/m 25,7 km/h (4 Bft) 97,87 %
30.04.2019 18:54 16,6 C 15,0 C 14,4 C 66 % 1018,2 hPa 0,0 l/m 2 min 0 min 218 W/m 25,7 km/h (4 Bft) 97,87 %
30.04.2019 18:56 16,4 C 15,0 C 14,4 C 66 % 1018,2 hPa 0,0 l/m 2 min 0 min 156 W/m 19,3 km/h (3 Bft) 95,74 %
30.04.2019 18:58 16,3 C 15,0 C 14,4 C 67 % 1018,1 hPa 0,0 l/m 0 min 0 min 101 W/m 19,3 km/h (3 Bft) 97,87 %
30.04.2019 19:00 16,2 C 14,4 C 14,4 C 67 % 1018,2 hPa 0,0 l/m 0 min 0 min 95 W/m 16,1 km/h (3 Bft) 97,62 %
30.04.2019 19:02 16,1 C 14,4 C 14,4 C 67 % 1018,2 hPa 0,0 l/m 0 min 0 min 92 W/m 19,3 km/h (3 Bft) 97,96 %
30.04.2019 19:04 16,0 C 14,4 C 13,9 C 68 % 1018,2 hPa 0,0 l/m 0 min 0 min 91 W/m 16,1 km/h (3 Bft) 96,00 %
30.04.2019 19:06 15,9 C 14,4 C 13,9 C 68 % 1018,2 hPa 0,0 l/m 0 min 0 min 90 W/m 16,1 km/h (3 Bft) 98,00 %
30.04.2019 19:08 15,8 C 14,4 C 13,9 C 68 % 1018,2 hPa 0,0 l/m 0 min 0 min 88 W/m 19,3 km/h (3 Bft) 97,87 %
30.04.2019 19:10 15,7 C 14,4 C 13,9 C 68 % 1018,2 hPa 0,0 l/m 0 min 0 min 86 W/m 25,7 km/h (4 Bft) 97,87 %
30.04.2019 19:12 15,6 C 14,4 C 13,9 C 68 % 1018,3 hPa 0,0 l/m 0 min 0 min 84 W/m 22,5 km/h (4 Bft) 97,83 %
30.04.2019 19:14 15,5 C 14,4 C 13,9 C 68 % 1018,3 hPa 0,0 l/m 0 min 0 min 82 W/m 16,1 km/h (3 Bft) 97,37 %
30.04.2019 19:16 15,4 C 14,4 C 13,9 C 68 % 1018,2 hPa 0,0 l/m 0 min 0 min 79 W/m 16,1 km/h (3 Bft) 97,87 %
30.04.2019 19:18 15,4 C 14,4 C 13,9 C 69 % 1018,3 hPa 0,0 l/m 0 min 0 min 77 W/m 16,1 km/h (3 Bft) 97,87 %
30.04.2019 19:20 15,3 C 13,9 C 13,9 C 69 % 1018,2 hPa 0,0 l/m 0 min 0 min 76 W/m 25,7 km/h (4 Bft) 97,87 %
30.04.2019 19:22 15,2 C 13,9 C 13,9 C 69 % 1018,2 hPa 0,0 l/m 0 min 0 min 76 W/m 19,3 km/h (3 Bft) 97,87 %
30.04.2019 19:24 15,1 C 13,9 C 13,3 C 69 % 1018,3 hPa 0,0 l/m 0 min 0 min 75 W/m 22,5 km/h (4 Bft) 98,00 %
30.04.2019 19:26 15,1 C 13,9 C 13,3 C 70 % 1018,3 hPa 0,0 l/m 0 min 0 min 73 W/m 19,3 km/h (3 Bft) 97,83 %
30.04.2019 19:28 15,0 C 13,9 C 13,3 C 70 % 1018,2 hPa 0,0 l/m 0 min 0 min 72 W/m 12,9 km/h (3 Bft) 97,87 %
30.04.2019 19:30 14,9 C 13,9 C 13,3 C 70 % 1018,3 hPa 0,0 l/m 0 min 0 min 70 W/m 9,7 km/h (2 Bft) 98,00 %
30.04.2019 19:32 14,9 C 13,9 C 13,3 C 71 % 1018,3 hPa 0,0 l/m 0 min 0 min 69 W/m 12,9 km/h (3 Bft) 95,74 %
30.04.2019 19:34 14,9 C 13,9 C 13,3 C 71 % 1018,3 hPa 0,0 l/m 0 min 0 min 66 W/m 22,5 km/h (4 Bft) 97,87 %
30.04.2019 19:36 14,8 C 13,9 C 13,3 C 71 % 1018,2 hPa 0,0 l/m 0 min 0 min 62 W/m 12,9 km/h (3 Bft) 95,92 %
30.04.2019 19:38 14,8 C 13,9 C 13,3 C 72 % 1018,3 hPa 0,0 l/m 0 min 0 min 62 W/m 16,1 km/h (3 Bft) 100,00 %
30.04.2019 19:40 14,7 C 13,9 C 13,3 C 72 % 1018,3 hPa 0,0 l/m 0 min 0 min 61 W/m 12,9 km/h (3 Bft) 100,00 %
30.04.2019 19:42 14,7 C 13,9 C 13,3 C 72 % 1018,2 hPa 0,0 l/m 0 min 0 min 59 W/m 9,7 km/h (2 Bft) 100,00 %
30.04.2019 19:44 14,6 C 13,3 C 13,3 C 73 % 1018,2 hPa 0,0 l/m 0 min 0 min 57 W/m 12,9 km/h (3 Bft) 97,87 %
30.04.2019 19:46 14,6 C 13,3 C 13,3 C 72 % 1018,3 hPa 0,0 l/m 0 min 0 min 55 W/m 12,9 km/h (3 Bft) 97,87 %
30.04.2019 19:48 14,6 C 13,3 C 12,8 C 72 % 1018,3 hPa 0,0 l/m 0 min 0 min 50 W/m 12,9 km/h (3 Bft) 97,83 %
30.04.2019 19:50 14,5 C 13,3 C 12,8 C 73 % 1018,3 hPa 0,0 l/m 0 min 0 min 49 W/m 16,1 km/h (3 Bft) 97,37 %
30.04.2019 19:52 14,4 C 13,3 C 12,8 C 72 % 1018,3 hPa 0,0 l/m 0 min 0 min 45 W/m 19,3 km/h (3 Bft) 95,74 %
30.04.2019 19:54 14,4 C 13,3 C 12,8 C 72 % 1018,2 hPa 0,0 l/m 0 min 0 min 47 W/m 12,9 km/h (3 Bft) 98,21 %
30.04.2019 19:56 14,3 C 12,8 C 12,8 C 72 % 1018,3 hPa 0,0 l/m 0 min 0 min 46 W/m 16,1 km/h (3 Bft) 97,87 %
30.04.2019 19:58 14,2 C 12,8 C 12,8 C 72 % 1018,3 hPa 0,0 l/m 0 min 0 min 45 W/m 12,9 km/h (3 Bft) 97,87 %
30.04.2019 20:00 14,2 C 12,8 C 12,8 C 73 % 1018,3 hPa 0,0 l/m 0 min 0 min 44 W/m 12,9 km/h (3 Bft) 94,74 %
30.04.2019 20:02 14,2 C 12,8 C 12,8 C 73 % 1018,3 hPa 0,0 l/m 0 min 0 min 41 W/m 19,3 km/h (3 Bft) 97,83 %
30.04.2019 20:04 14,2 C 12,8 C 12,8 C 73 % 1018,3 hPa 0,0 l/m 0 min 0 min 40 W/m 16,1 km/h (3 Bft) 97,87 %
30.04.2019 20:06 14,2 C 12,8 C 12,8 C 73 % 1018,3 hPa 0,0 l/m 0 min 0 min 39 W/m 16,1 km/h (3 Bft) 98,00 %
30.04.2019 20:08 14,1 C 12,8 C 12,8 C 73 % 1018,3 hPa 0,0 l/m 0 min 0 min 36 W/m 16,1 km/h (3 Bft) 97,87 %
30.04.2019 20:10 14,1 C 12,8 C 12,2 C 73 % 1018,3 hPa 0,0 l/m 0 min 0 min 34 W/m 12,9 km/h (3 Bft) 97,87 %
30.04.2019 20:12 14,0 C 12,8 C 12,2 C 74 % 1018,3 hPa 0,0 l/m 0 min 0 min 32 W/m 6,4 km/h (2 Bft) 95,65 %
30.04.2019 20:14 13,9 C 12,2 C 12,2 C 74 % 1018,2 hPa 0,0 l/m 0 min 0 min 30 W/m 9,7 km/h (2 Bft) 97,87 %
30.04.2019 20:16 13,9 C 12,2 C 12,2 C 74 % 1018,2 hPa 0,0 l/m 0 min 0 min 29 W/m 6,4 km/h (2 Bft) 97,87 %
30.04.2019 20:18 13,8 C 12,2 C 12,2 C 74 % 1018,2 hPa 0,0 l/m 0 min 0 min 27 W/m 6,4 km/h (2 Bft) 98,00 %
30.04.2019 20:20 13,8 C 12,2 C 12,2 C 74 % 1018,2 hPa 0,0 l/m 0 min 0 min 26 W/m 16,1 km/h (3 Bft) 95,74 %
30.04.2019 20:22 13,8 C 12,2 C 11,7 C 74 % 1018,2 hPa 0,0 l/m 0 min 0 min 24 W/m 9,7 km/h (2 Bft) 95,74 %
30.04.2019 20:24 13,7 C 12,2 C 11,7 C 74 % 1018,2 hPa 0,0 l/m 0 min 0 min 23 W/m 19,3 km/h (3 Bft) 95,65 %
30.04.2019 20:26 13,6 C 12,2 C 11,7 C 74 % 1018,3 hPa 0,0 l/m 0 min 0 min 21 W/m 12,9 km/h (3 Bft) 95,74 %
30.04.2019 20:28 13,6 C 12,2 C 11,7 C 74 % 1018,2 hPa 0,0 l/m 0 min 0 min 19 W/m 9,7 km/h (2 Bft) 95,74 %
30.04.2019 20:30 13,5 C 12,2 C 11,7 C 74 % 1018,2 hPa 0,0 l/m 0 min 0 min 18 W/m 9,7 km/h (2 Bft) 97,87 %
30.04.2019 20:32 13,4 C 11,7 C 11,7 C 74 % 1018,2 hPa 0,0 l/m 0 min 0 min 16 W/m 6,4 km/h (2 Bft) 97,87 %
30.04.2019 20:34 13,4 C 11,7 C 11,7 C 74 % 1018,2 hPa 0,0 l/m 0 min 0 min 15 W/m 16,1 km/h (3 Bft) 95,74 %
30.04.2019 20:36 13,3 C 11,7 C 11,7 C 74 % 1018,2 hPa 0,0 l/m 0 min 0 min 13 W/m 9,7 km/h (2 Bft) 97,83 %
30.04.2019 20:38 13,3 C 11,7 C 11,7 C 74 % 1018,2 hPa 0,0 l/m 0 min 0 min 12 W/m 12,9 km/h (3 Bft) 95,74 %
30.04.2019 20:40 13,2 C 11,7 C 11,7 C 74 % 1018,2 hPa 0,0 l/m 0 min 0 min 11 W/m 12,9 km/h (3 Bft) 97,87 %
30.04.2019 20:42 13,2 C 11,7 C 11,7 C 74 % 1018,2 hPa 0,0 l/m 0 min 0 min 10 W/m 6,4 km/h (2 Bft) 97,87 %
30.04.2019 20:44 13,1 C 11,7 C 11,1 C 74 % 1018,2 hPa 0,0 l/m 0 min 0 min 9 W/m 6,4 km/h (2 Bft) 97,87 %
30.04.2019 20:46 13,1 C 11,7 C 11,1 C 74 % 1018,2 hPa 0,0 l/m 0 min 0 min 8 W/m 6,4 km/h (2 Bft) 97,96 %
30.04.2019 20:48 13,1 C 11,7 C 11,1 C 75 % 1018,3 hPa 0,0 l/m 0 min 0 min 7 W/m 9,7 km/h (2 Bft) 97,37 %
30.04.2019 20:50 13,0 C 11,1 C 11,1 C 75 % 1018,2 hPa 0,0 l/m 0 min 0 min 6 W/m 6,4 km/h (2 Bft) 95,74 %
30.04.2019 20:52 12,9 C 11,1 C 11,1 C 75 % 1018,3 hPa 0,0 l/m 0 min 0 min 5 W/m 9,7 km/h (2 Bft) 97,87 %
30.04.2019 20:54 12,9 C 11,1 C 11,1 C 75 % 1018,3 hPa 0,0 l/m 0 min 0 min 4 W/m 12,9 km/h (3 Bft) 95,74 %
30.04.2019 20:56 12,8 C 11,1 C 11,1 C 75 % 1018,3 hPa 0,0 l/m 0 min 0 min 0 W/m 6,4 km/h (2 Bft) 97,87 %
30.04.2019 20:58 12,8 C 11,1 C 11,1 C 76 % 1018,3 hPa 0,0 l/m 0 min 0 min 0 W/m 9,7 km/h (2 Bft) 98,00 %
30.04.2019 21:00 12,7 C 11,1 C 11,1 C 76 % 1018,3 hPa 0,0 l/m 0 min 0 min 0 W/m 6,4 km/h (2 Bft) 97,96 %
30.04.2019 21:02 12,7 C 11,1 C 10,6 C 76 % 1018,3 hPa 0,0 l/m 0 min 0 min 0 W/m 12,9 km/h (3 Bft) 97,87 %
30.04.2019 21:04 12,7 C 11,1 C 10,6 C 76 % 1018,3 hPa 0,0 l/m 0 min 0 min 0 W/m 12,9 km/h (3 Bft) 96,00 %
30.04.2019 21:06 12,6 C 10,6 C 10,6 C 77 % 1018,4 hPa 0,0 l/m 0 min 0 min 0 W/m 3,2 km/h (1 Bft) 95,74 %
30.04.2019 21:08 12,6 C 10,6 C 10,6 C 77 % 1018,3 hPa 0,0 l/m 0 min 0 min 0 W/m 9,7 km/h (2 Bft) 97,87 %
30.04.2019 21:10 12,5 C 10,6 C 10,6 C 77 % 1018,4 hPa 0,0 l/m 0 min 0 min 0 W/m 12,9 km/h (3 Bft) 97,83 %
30.04.2019 21:12 12,4 C 10,6 C 10,6 C 77 % 1018,4 hPa 0,0 l/m 0 min 0 min 0 W/m 16,1 km/h (3 Bft) 97,87 %
30.04.2019 21:14 12,4 C 10,6 C 10,6 C 77 % 1018,4 hPa 0,0 l/m 0 min 0 min 0 W/m 12,9 km/h (3 Bft) 97,37 %
30.04.2019 21:16 12,3 C 10,6 C 10,6 C 78 % 1018,4 hPa 0,0 l/m 0 min 0 min 0 W/m 12,9 km/h (3 Bft) 100,00 %
30.04.2019 21:18 12,3 C 10,6 C 10,6 C 78 % 1018,5 hPa 0,0 l/m 0 min 0 min 0 W/m 12,9 km/h (3 Bft) 100,00 %
30.04.2019 21:20 12,3 C 10,6 C 10,6 C 78 % 1018,5 hPa 0,0 l/m 0 min 0 min 0 W/m 9,7 km/h (2 Bft) 100,00 %
30.04.2019 21:22 12,2 C 10,6 C 10,6 C 78 % 1018,5 hPa 0,0 l/m 0 min 0 min 0 W/m 16,1 km/h (3 Bft) 100,00 %
30.04.2019 21:24 12,2 C 10,6 C 10,6 C 78 % 1018,5 hPa 0,0 l/m 0 min 0 min 0 W/m 12,9 km/h (3 Bft) 100,00 %
30.04.2019 21:26 12,1 C 10,6 C 10,6 C 79 % 1018,5 hPa 0,0 l/m 0 min 0 min 0 W/m 9,7 km/h (2 Bft) 96,00 %
30.04.2019 21:28 12,1 C 10,6 C 10,6 C 79 % 1018,5 hPa 0,0 l/m 0 min 0 min 0 W/m 9,7 km/h (2 Bft) 100,00 %
30.04.2019 21:30 12,1 C 10,6 C 10,6 C 79 % 1018,5 hPa 0,0 l/m 0 min 0 min 0 W/m 9,7 km/h (2 Bft) 100,00 %
30.04.2019 21:32 12,0 C 10,6 C 10,6 C 79 % 1018,6 hPa 0,0 l/m 0 min 0 min 0 W/m 9,7 km/h (2 Bft) 100,00 %
30.04.2019 21:34 12,0 C 10,6 C 10,6 C 79 % 1018,5 hPa 0,0 l/m 0 min 0 min 0 W/m 12,9 km/h (3 Bft) 100,00 %
30.04.2019 21:36 11,9 C 10,6 C 10,6 C 79 % 1018,6 hPa 0,0 l/m 0 min 0 min 0 W/m 9,7 km/h (2 Bft) 100,00 %
30.04.2019 21:38 11,9 C 10,6 C 10,0 C 79 % 1018,6 hPa 0,0 l/m 0 min 0 min 0 W/m 9,7 km/h (2 Bft) 100,00 %
30.04.2019 21:40 11,9 C 10,6 C 10,0 C 79 % 1018,6 hPa 0,0 l/m 0 min 0 min 0 W/m 9,7 km/h (2 Bft) 100,00 %
30.04.2019 21:42 11,8 C 10,0 C 10,0 C 80 % 1018,6 hPa 0,0 l/m 0 min 0 min 0 W/m 9,7 km/h (2 Bft) 97,87 %
30.04.2019 21:44 11,8 C 10,0 C 10,0 C 80 % 1018,6 hPa 0,0 l/m 0 min 0 min 0 W/m 9,7 km/h (2 Bft) 97,87 %
30.04.2019 21:46 11,8 C 10,0 C 10,0 C 80 % 1018,6 hPa 0,0 l/m 0 min 0 min 0 W/m 6,4 km/h (2 Bft) 97,96 %
30.04.2019 21:48 11,7 C 10,0 C 10,0 C 80 % 1018,6 hPa 0,0 l/m 0 min 0 min 0 W/m 12,9 km/h (3 Bft) 100,00 %
30.04.2019 21:50 11,7 C 10,0 C 10,0 C 80 % 1018,6 hPa 0,0 l/m 0 min 0 min 0 W/m 9,7 km/h (2 Bft) 100,00 %
30.04.2019 21:52 11,7 C 10,0 C 10,0 C 80 % 1018,6 hPa 0,0 l/m 0 min 0 min 0 W/m 9,7 km/h (2 Bft) 97,87 %
30.04.2019 21:54 11,6 C 10,0 C 10,0 C 80 % 1018,6 hPa 0,0 l/m 0 min 0 min 0 W/m 9,7 km/h (2 Bft) 97,87 %
30.04.2019 21:56 11,6 C 10,0 C 10,0 C 80 % 1018,6 hPa 0,0 l/m 0 min 0 min 0 W/m 12,9 km/h (3 Bft) 95,74 %
30.04.2019 21:58 11,5 C 10,0 C 10,0 C 81 % 1018,6 hPa 0,0 l/m 0 min 0 min 0 W/m 16,1 km/h (3 Bft) 97,96 %
30.04.2019 22:00 11,5 C 10,0 C 10,0 C 81 % 1018,6 hPa 0,0 l/m 0 min 0 min 0 W/m 16,1 km/h (3 Bft) 98,00 %
30.04.2019 22:02 11,4 C 10,0 C 10,0 C 81 % 1018,6 hPa 0,0 l/m 0 min 0 min 0 W/m 9,7 km/h (2 Bft) 95,74 %
30.04.2019 22:04 11,4 C 10,0 C 10,0 C 81 % 1018,6 hPa 0,0 l/m 0 min 0 min 0 W/m 9,7 km/h (2 Bft) 97,87 %
30.04.2019 22:06 11,4 C 10,0 C 10,0 C 81 % 1018,6 hPa 0,0 l/m 0 min 0 min 0 W/m 9,7 km/h (2 Bft) 97,87 %
30.04.2019 22:08 11,3 C 10,0 C 9,4 C 81 % 1018,6 hPa 0,0 l/m 0 min 0 min 0 W/m 6,4 km/h (2 Bft) 97,83 %
30.04.2019 22:10 11,3 C 9,4 C 9,4 C 81 % 1018,6 hPa 0,0 l/m 0 min 0 min 0 W/m 9,7 km/h (2 Bft) 97,87 %
30.04.2019 22:12 11,3 C 9,4 C 9,4 C 82 % 1018,6 hPa 0,0 l/m 0 min 0 min 0 W/m 6,4 km/h (2 Bft) 97,37 %
30.04.2019 22:14 11,2 C 9,4 C 9,4 C 82 % 1018,6 hPa 0,0 l/m 0 min 0 min 0 W/m 6,4 km/h (2 Bft) 97,87 %
30.04.2019 22:16 11,2 C 9,4 C 9,4 C 82 % 1018,5 hPa 0,0 l/m 0 min 0 min 0 W/m 6,4 km/h (2 Bft) 97,87 %
30.04.2019 22:18 11,2 C 9,4 C 9,4 C 82 % 1018,6 hPa 0,0 l/m 0 min 0 min 0 W/m 9,7 km/h (2 Bft) 97,92 %
30.04.2019 22:20 11,1 C 9,4 C 9,4 C 82 % 1018,6 hPa 0,0 l/m 0 min 0 min 0 W/m 6,4 km/h (2 Bft) 97,87 %
30.04.2019 22:22 11,1 C 9,4 C 9,4 C 82 % 1018,6 hPa 0,0 l/m 0 min 0 min 0 W/m 6,4 km/h (2 Bft) 95,65 %
30.04.2019 22:24 11,1 C 9,4 C 9,4 C 82 % 1018,5 hPa 0,0 l/m 0 min 0 min 0 W/m 6,4 km/h (2 Bft) 97,87 %
30.04.2019 22:26 11,1 C 9,4 C 9,4 C 82 % 1018,6 hPa 0,0 l/m 0 min 0 min 0 W/m 6,4 km/h (2 Bft) 97,87 %
30.04.2019 22:28 11,0 C 9,4 C 9,4 C 82 % 1018,5 hPa 0,0 l/m 0 min 0 min 0 W/m 6,4 km/h (2 Bft) 97,87 %
30.04.2019 22:30 10,9 C 9,4 C 8,9 C 83 % 1018,5 hPa 0,0 l/m 0 min 0 min 0 W/m 3,2 km/h (1 Bft) 95,74 %
30.04.2019 22:32 10,9 C 9,4 C 8,9 C 83 % 1018,5 hPa 0,0 l/m 0 min 0 min 0 W/m 6,4 km/h (2 Bft) 96,30 %
30.04.2019 22:34 10,9 C 9,4 C 8,9 C 83 % 1018,5 hPa 0,0 l/m 0 min 0 min 0 W/m 9,7 km/h (2 Bft) 97,87 %
30.04.2019 22:36 10,9 C 9,4 C 8,9 C 83 % 1018,5 hPa 0,0 l/m 0 min 0 min 0 W/m 12,9 km/h (3 Bft) 97,87 %
30.04.2019 22:38 10,8 C 9,4 C 8,9 C 83 % 1018,4 hPa 0,0 l/m 0 min 0 min 0 W/m 9,7 km/h (2 Bft) 100,00 %
30.04.2019 22:40 10,8 C 9,4 C 8,9 C 83 % 1018,4 hPa 0,0 l/m 0 min 0 min 0 W/m 3,2 km/h (1 Bft) 97,87 %
30.04.2019 22:42 10,8 C 8,9 C 8,9 C 83 % 1018,4 hPa 0,0 l/m 0 min 0 min 0 W/m 3,2 km/h (1 Bft) 100,00 %
30.04.2019 22:44 10,7 C 8,9 C 8,9 C 83 % 1018,5 hPa 0,0 l/m 0 min 0 min 0 W/m 6,4 km/h (2 Bft) 100,00 %
30.04.2019 22:46 10,7 C 8,9 C 8,9 C 83 % 1018,5 hPa 0,0 l/m 0 min 0 min 0 W/m 6,4 km/h (2 Bft) 97,83 %
30.04.2019 22:48 10,7 C 8,9 C 8,9 C 83 % 1018,4 hPa 0,0 l/m 0 min 0 min 0 W/m 9,7 km/h (2 Bft) 95,74 %
30.04.2019 22:50 10,6 C 8,9 C 8,9 C 83 % 1018,4 hPa 0,0 l/m 0 min 0 min 0 W/m 6,4 km/h (2 Bft) 95,74 %
30.04.2019 22:52 10,6 C 8,9 C 8,9 C 83 % 1018,4 hPa 0,0 l/m 0 min 0 min 0 W/m 6,4 km/h (2 Bft) 97,87 %
30.04.2019 22:54 10,6 C 8,9 C 8,9 C 83 % 1018,4 hPa 0,0 l/m 0 min 0 min 0 W/m 6,4 km/h (2 Bft) 97,87 %
30.04.2019 22:56 10,5 C 8,3 C 8,3 C 84 % 1018,4 hPa 0,0 l/m 0 min 0 min 0 W/m 6,4 km/h (2 Bft) 97,87 %
30.04.2019 22:58 10,4 C 8,3 C 8,3 C 84 % 1018,4 hPa 0,0 l/m 0 min 0 min 0 W/m 6,4 km/h (2 Bft) 95,65 %
30.04.2019 23:00 10,4 C 8,3 C 8,3 C 84 % 1018,4 hPa 0,0 l/m 0 min 0 min 0 W/m 6,4 km/h (2 Bft) 97,87 %
30.04.2019 23:02 10,4 C 8,3 C 8,3 C 84 % 1018,3 hPa 0,0 l/m 0 min 0 min 0 W/m 6,4 km/h (2 Bft) 97,87 %
30.04.2019 23:04 10,3 C 8,3 C 8,3 C 84 % 1018,3 hPa 0,0 l/m 0 min 0 min 0 W/m 9,7 km/h (2 Bft) 97,87 %
30.04.2019 23:06 10,3 C 8,3 C 8,3 C 84 % 1018,3 hPa 0,0 l/m 0 min 0 min 0 W/m 6,4 km/h (2 Bft) 97,87 %
30.04.2019 23:08 10,3 C 8,3 C 8,3 C 84 % 1018,3 hPa 0,0 l/m 0 min 0 min 0 W/m 6,4 km/h (2 Bft) 97,87 %
30.04.2019 23:10 10,2 C 8,3 C 8,3 C 84 % 1018,3 hPa 0,0 l/m 0 min 0 min 0 W/m 16,1 km/h (3 Bft) 97,83 %
30.04.2019 23:12 10,2 C 8,3 C 8,3 C 84 % 1018,3 hPa 0,0 l/m 0 min 0 min 0 W/m 9,7 km/h (2 Bft) 97,87 %
30.04.2019 23:14 10,2 C 8,3 C 8,3 C 84 % 1018,2 hPa 0,0 l/m 0 min 0 min 0 W/m 6,4 km/h (2 Bft) 97,87 %
30.04.2019 23:16 10,1 C 8,3 C 8,3 C 85 % 1018,2 hPa 0,0 l/m 0 min 0 min 0 W/m 3,2 km/h (1 Bft) 97,87 %
30.04.2019 23:18 10,1 C 8,3 C 8,3 C 85 % 1018,3 hPa 0,0 l/m 0 min 0 min 0 W/m 6,4 km/h (2 Bft) 95,74 %
30.04.2019 23:20 10,1 C 8,3 C 8,3 C 85 % 1018,2 hPa 0,0 l/m 0 min 0 min 0 W/m 6,4 km/h (2 Bft) 97,87 %
30.04.2019 23:22 10,0 C 8,3 C 8,3 C 85 % 1018,2 hPa 0,0 l/m 0 min 0 min 0 W/m 6,4 km/h (2 Bft) 97,83 %
30.04.2019 23:24 10,0 C 8,3 C 8,3 C 85 % 1018,2 hPa 0,0 l/m 0 min 0 min 0 W/m 6,4 km/h (2 Bft) 97,87 %
30.04.2019 23:26 9,9 C 8,3 C 8,3 C 85 % 1018,2 hPa 0,0 l/m 0 min 0 min 0 W/m 9,7 km/h (2 Bft) 97,87 %
30.04.2019 23:28 9,9 C 8,3 C 8,3 C 85 % 1018,2 hPa 0,0 l/m 0 min 0 min 0 W/m 6,4 km/h (2 Bft) 97,87 %
30.04.2019 23:30 9,9 C 8,3 C 8,3 C 85 % 1018,2 hPa 0,0 l/m 0 min 0 min 0 W/m 9,7 km/h (2 Bft) 97,87 %
30.04.2019 23:32 9,8 C 8,3 C 8,3 C 85 % 1018,3 hPa 0,0 l/m 0 min 0 min 0 W/m 9,7 km/h (2 Bft) 97,83 %
30.04.2019 23:34 9,8 C 8,3 C 8,3 C 85 % 1018,3 hPa 0,0 l/m 0 min 0 min 0 W/m 6,4 km/h (2 Bft) 97,87 %
30.04.2019 23:36 9,8 C 8,3 C 8,3 C 85 % 1018,2 hPa 0,0 l/m 0 min 0 min 0 W/m 9,7 km/h (2 Bft) 97,87 %
30.04.2019 23:38 9,8 C 8,3 C 8,3 C 86 % 1018,2 hPa 0,0 l/m 0 min 0 min 0 W/m 6,4 km/h (2 Bft) 93,62 %
30.04.2019 23:40 9,7 C 8,3 C 8,3 C 86 % 1018,2 hPa 0,0 l/m 0 min 0 min 0 W/m 6,4 km/h (2 Bft) 95,74 %
30.04.2019 23:42 9,7 C 8,3 C 8,3 C 86 % 1018,2 hPa 0,0 l/m 0 min 0 min 0 W/m 6,4 km/h (2 Bft) 95,74 %
30.04.2019 23:44 9,7 C 8,3 C 8,3 C 86 % 1018,2 hPa 0,0 l/m 0 min 0 min 0 W/m 6,4 km/h (2 Bft) 95,65 %
30.04.2019 23:46 9,7 C 8,3 C 8,3 C 86 % 1018,2 hPa 0,0 l/m 0 min 0 min 0 W/m 6,4 km/h (2 Bft) 91,49 %
30.04.2019 23:48 9,6 C 8,3 C 8,3 C 86 % 1018,2 hPa 0,0 l/m 0 min 0 min 0 W/m 6,4 km/h (2 Bft) 95,74 %
30.04.2019 23:50 9,6 C 8,3 C 8,3 C 86 % 1018,2 hPa 0,0 l/m 0 min 0 min 0 W/m 6,4 km/h (2 Bft) 95,74 %
30.04.2019 23:52 9,6 C 8,3 C 7,8 C 86 % 1018,2 hPa 0,0 l/m 0 min 0 min 0 W/m 6,4 km/h (2 Bft) 95,74 %
30.04.2019 23:54 9,6 C 8,3 C 7,8 C 86 % 1018,2 hPa 0,0 l/m 0 min 0 min 0 W/m 9,7 km/h (2 Bft) 93,62 %
30.04.2019 23:56 9,5 C 8,3 C 8,3 C 86 % 1018,2 hPa 0,0 l/m 0 min 0 min 0 W/m 9,7 km/h (2 Bft) 93,48 %
30.04.2019 23:58 9,5 C 8,3 C 8,3 C 87 % 1018,2 hPa 0,0 l/m 0 min 0 min 0 W/m 9,7 km/h (2 Bft) 95,74 %
_ Min-Zeit 23:56 22:56 23:52 15:34 18:42 - - - - 04:28 17:18
Minimum _ 9,5 C 8,3 C 7,8 C 55 % 1018,1 hPa - - - - 0,0 km/h (0 Bft) 60,98 %
_ Max-Zeit 15:52 12:42 13:34 07:54 00:20 00:00 12:08 00:00 14:12 14:30 00:26
Maximum _ 20,1 C 27,2 C 28,3 C 94 % 1021,6 hPa 0,0 l/m 4 min 0 min 1020 W/m 29,0 km/h
W-NW (5 Bft)
100,00 %
Durchschnitt _ 13,6 C 14,6 C 14,2 C 77 % 1019,9 hPa #0,0 l/m #8:53 h #0 min. 450 W/m 11,8 km/h (2 Bft) 97,41 %
© 2019 W. Hausmann